GFSGBSN_prec_pwat_015.txt.gz
Precipitable_Water
1.06 1.04 1.04 1.03 1.01 0.99 0.98 0.96 0.94 0.91 0.89 0.86 0.82 0.80 0.78 0.74 0.68 0.63 0.57 0.51 0.47 0.43 0.42 0.42 0.46 0.44 0.38 0.24 0.22 0.29 0.43 0.57 0.44 0.32 0.28 0.48 0.48 0.50 0.49 0.59 0.65 0.78 0.82 0.84 0.86 0.84 0.96
1.09 1.08 1.07 1.05 1.04 1.03 1.01 1.00 0.97 0.95 0.92 0.88 0.84 0.81 0.78 0.77 0.75 0.71 0.65 0.61 0.53 0.48 0.45 0.43 0.44 0.45 0.28 0.15 0.28 0.27 0.26 0.40 0.40 0.35 0.33 0.41 0.41 0.49 0.50 0.55 0.59 0.69 0.72 0.74 0.76 0.75 0.94
1.13 1.11 1.09 1.07 1.05 1.03 1.02 1.01 0.99 0.96 0.94 0.90 0.87 0.84 0.80 0.77 0.75 0.74 0.70 0.65 0.61 0.55 0.49 0.48 0.46 0.40 0.24 0.16 0.28 0.39 0.40 0.33 0.40 0.37 0.29 0.35 0.41 0.40 0.49 0.51 0.62 0.63 0.60 0.67 0.67 0.67 0.88
1.12 1.11 1.09 1.07 1.04 1.01 0.98 0.97 0.97 0.96 0.93 0.91 0.89 0.86 0.83 0.80 0.76 0.73 0.72 0.68 0.63 0.60 0.57 0.54 0.51 0.42 0.14 0.23 0.31 0.28 0.33 0.31 0.43 0.43 0.35 0.34 0.40 0.38 0.46 0.56 0.57 0.54 0.57 0.52 0.61 0.58 0.63
1.00 0.98 0.97 0.97 0.98 0.97 0.96 0.93 0.91 0.91 0.88 0.86 0.84 0.83 0.82 0.80 0.77 0.74 0.73 0.68 0.65 0.71 0.68 0.64 0.50 0.39 0.16 0.34 0.26 0.25 0.29 0.23 0.29 0.36 0.39 0.42 0.37 0.30 0.39 0.42 0.43 0.48 0.42 0.47 0.52 0.54 0.59
0.84 0.82 0.82 0.81 0.79 0.81 0.81 0.81 0.81 0.80 0.79 0.79 0.79 0.80 0.79 0.79 0.76 0.74 0.74 0.71 0.74 0.86 0.83 0.80 0.71 0.38 0.29 0.19 0.41 0.39 0.35 0.26 0.28 0.33 0.34 0.32 0.29 0.22 0.27 0.35 0.30 0.37 0.40 0.46 0.46 0.47 0.57
0.73 0.72 0.71 0.67 0.65 0.65 0.67 0.68 0.67 0.67 0.67 0.68 0.69 0.70 0.70 0.73 0.74 0.75 0.69 0.63 0.48 0.45 0.54 0.39 0.40 0.34 0.29 0.34 0.35 0.35 0.33 0.24 0.30 0.29 0.21 0.27 0.21 0.15 0.21 0.32 0.39 0.43 0.41 0.42 0.47 0.47 0.45
0.68 0.66 0.65 0.61 0.60 0.62 0.61 0.59 0.58 0.58 0.58 0.58 0.59 0.60 0.60 0.59 0.65 0.77 0.65 0.52 0.53 0.54 0.39 0.46 0.43 0.39 0.39 0.38 0.29 0.33 0.37 0.20 0.24 0.18 0.22 0.21 0.16 0.21 0.26 0.30 0.34 0.38 0.39 0.40 0.46 0.48 0.43
0.62 0.62 0.61 0.57 0.55 0.55 0.53 0.53 0.53 0.53 0.53 0.52 0.52 0.52 0.53 0.51 0.54 0.62 0.58 0.56 0.62 0.61 0.38 0.37 0.43 0.39 0.38 0.37 0.26 0.28 0.34 0.23 0.21 0.20 0.18 0.15 0.16 0.21 0.21 0.24 0.27 0.31 0.33 0.40 0.40 0.45 0.45
0.59 0.60 0.57 0.53 0.54 0.52 0.50 0.50 0.50 0.49 0.49 0.48 0.46 0.45 0.47 0.47 0.34 0.43 0.50 0.58 0.62 0.61 0.32 0.32 0.35 0.34 0.37 0.37 0.29 0.30 0.40 0.27 0.25 0.20 0.22 0.20 0.21 0.18 0.18 0.18 0.25 0.23 0.34 0.40 0.40 0.40 0.33
0.57 0.54 0.53 0.54 0.52 0.52 0.53 0.52 0.51 0.50 0.51 0.50 0.47 0.42 0.41 0.45 0.35 0.27 0.41 0.57 0.62 0.50 0.21 0.37 0.33 0.39 0.34 0.31 0.31 0.31 0.39 0.37 0.25 0.25 0.25 0.18 0.15 0.16 0.15 0.16 0.21 0.19 0.34 0.38 0.40 0.38 0.37
0.55 0.55 0.55 0.54 0.54 0.53 0.53 0.53 0.52 0.51 0.51 0.50 0.45 0.42 0.41 0.38 0.38 0.35 0.42 0.51 0.50 0.32 0.20 0.32 0.33 0.29 0.29 0.29 0.28 0.33 0.31 0.44 0.38 0.30 0.29 0.22 0.27 0.24 0.18 0.20 0.19 0.22 0.26 0.31 0.38 0.38 0.29
0.54 0.53 0.54 0.53 0.53 0.53 0.54 0.54 0.54 0.52 0.52 0.50 0.45 0.40 0.35 0.41 0.24 0.34 0.38 0.37 0.23 0.21 0.33 0.29 0.28 0.31 0.30 0.26 0.26 0.28 0.28 0.32 0.28 0.24 0.22 0.27 0.24 0.27 0.27 0.21 0.23 0.21 0.20 0.18 0.20 0.25 0.21
0.54 0.54 0.53 0.53 0.52 0.52 0.53 0.52 0.53 0.52 0.52 0.52 0.47 0.38 0.34 0.39 0.46 0.41 0.33 0.23 0.13 0.22 0.28 0.34 0.33 0.32 0.27 0.29 0.26 0.26 0.27 0.27 0.35 0.30 0.25 0.22 0.19 0.24 0.26 0.23 0.18 0.19 0.18 0.15 0.12 0.16 0.21
0.53 0.53 0.53 0.54 0.53 0.53 0.53 0.53 0.53 0.51 0.51 0.52 0.47 0.33 0.32 0.42 0.47 0.44 0.23 0.15 0.14 0.19 0.29 0.32 0.35 0.30 0.29 0.30 0.30 0.27 0.26 0.30 0.33 0.33 0.25 0.24 0.22 0.28 0.28 0.26 0.23 0.19 0.18 0.19 0.17 0.20 0.18
0.54 0.54 0.54 0.54 0.53 0.53 0.54 0.54 0.55 0.53 0.52 0.53 0.41 0.31 0.31 0.44 0.52 0.40 0.25 0.15 0.19 0.27 0.29 0.32 0.29 0.34 0.29 0.30 0.28 0.28 0.25 0.28 0.31 0.40 0.38 0.28 0.19 0.25 0.25 0.28 0.27 0.21 0.23 0.16 0.16 0.12 0.12
0.54 0.54 0.54 0.54 0.53 0.54 0.54 0.56 0.56 0.55 0.53 0.52 0.38 0.23 0.33 0.43 0.43 0.34 0.19 0.22 0.24 0.29 0.31 0.28 0.29 0.32 0.35 0.33 0.33 0.30 0.30 0.33 0.35 0.35 0.40 0.35 0.27 0.23 0.25 0.21 0.18 0.20 0.19 0.20 0.20 0.16 0.11
0.52 0.53 0.54 0.54 0.54 0.55 0.56 0.58 0.58 0.58 0.56 0.51 0.37 0.19 0.38 0.47 0.24 0.31 0.30 0.34 0.37 0.31 0.32 0.33 0.33 0.32 0.35 0.39 0.35 0.33 0.32 0.36 0.44 0.42 0.32 0.37 0.29 0.22 0.23 0.27 0.23 0.19 0.18 0.19 0.16 0.14 0.15
0.52 0.53 0.55 0.57 0.57 0.57 0.57 0.60 0.61 0.60 0.61 0.49 0.31 0.30 0.45 0.43 0.23 0.25 0.33 0.36 0.41 0.37 0.33 0.32 0.32 0.34 0.38 0.37 0.35 0.40 0.40 0.49 0.49 0.44 0.40 0.39 0.28 0.20 0.20 0.24 0.25 0.22 0.20 0.20 0.19 0.19 0.15
0.54 0.56 0.58 0.60 0.61 0.61 0.61 0.64 0.64 0.60 0.63 0.54 0.38 0.24 0.33 0.41 0.38 0.31 0.27 0.29 0.35 0.47 0.39 0.37 0.33 0.37 0.33 0.34 0.43 0.39 0.39 0.48 0.50 0.47 0.50 0.44 0.33 0.27 0.20 0.23 0.26 0.22 0.22 0.22 0.20 0.16 0.15
0.57 0.59 0.60 0.62 0.64 0.64 0.64 0.66 0.66 0.63 0.65 0.57 0.42 0.32 0.38 0.26 0.31 0.33 0.32 0.28 0.31 0.35 0.46 0.44 0.34 0.34 0.32 0.27 0.34 0.38 0.43 0.43 0.45 0.49 0.47 0.43 0.30 0.31 0.31 0.32 0.30 0.28 0.24 0.22 0.20 0.20 0.17
0.58 0.59 0.59 0.61 0.62 0.66 0.67 0.69 0.68 0.67 0.69 0.54 0.39 0.37 0.41 0.36 0.38 0.35 0.32 0.29 0.32 0.35 0.38 0.39 0.37 0.37 0.35 0.31 0.32 0.33 0.42 0.43 0.41 0.44 0.43 0.47 0.34 0.35 0.29 0.30 0.30 0.27 0.26 0.24 0.22 0.22 0.22
0.58 0.59 0.60 0.62 0.63 0.65 0.66 0.66 0.68 0.69 0.70 0.53 0.57 0.56 0.46 0.38 0.36 0.33 0.32 0.32 0.30 0.36 0.42 0.46 0.40 0.34 0.32 0.35 0.40 0.40 0.44 0.48 0.48 0.43 0.40 0.41 0.39 0.34 0.26 0.31 0.30 0.24 0.23 0.26 0.25 0.26 0.24
0.58 0.59 0.61 0.62 0.65 0.66 0.67 0.67 0.68 0.70 0.73 0.66 0.61 0.56 0.42 0.31 0.35 0.34 0.36 0.35 0.33 0.35 0.33 0.39 0.40 0.33 0.35 0.43 0.40 0.38 0.38 0.36 0.42 0.44 0.46 0.39 0.41 0.39 0.31 0.32 0.22 0.24 0.35 0.33 0.30 0.30 0.29
0.58 0.60 0.62 0.61 0.65 0.66 0.66 0.68 0.68 0.69 0.71 0.65 0.65 0.57 0.46 0.32 0.36 0.36 0.36 0.35 0.37 0.37 0.33 0.32 0.35 0.42 0.44 0.36 0.25 0.22 0.21 0.23 0.23 0.32 0.37 0.42 0.42 0.37 0.31 0.30 0.30 0.29 0.38 0.40 0.32 0.29 0.34
0.58 0.60 0.61 0.62 0.62 0.65 0.68 0.68 0.68 0.68 0.68 0.65 0.62 0.65 0.52 0.38 0.35 0.42 0.37 0.37 0.34 0.32 0.31 0.34 0.41 0.40 0.43 0.35 0.25 0.18 0.15 0.19 0.16 0.27 0.32 0.34 0.41 0.42 0.36 0.29 0.24 0.36 0.52 0.61 0.49 0.28 0.41
0.61 0.63 0.63 0.64 0.64 0.65 0.66 0.68 0.69 0.71 0.70 0.66 0.60 0.68 0.54 0.39 0.42 0.43 0.34 0.34 0.40 0.37 0.31 0.32 0.34 0.33 0.44 0.32 0.23 0.18 0.18 0.26 0.17 0.16 0.25 0.32 0.40 0.44 0.40 0.33 0.35 0.53 0.64 0.74 0.36 0.29 0.54
0.64 0.67 0.69 0.68 0.69 0.68 0.68 0.70 0.70 0.69 0.68 0.68 0.62 0.69 0.56 0.43 0.42 0.47 0.47 0.40 0.40 0.39 0.29 0.33 0.31 0.37 0.35 0.27 0.28 0.26 0.26 0.27 0.25 0.24 0.24 0.32 0.33 0.41 0.44 0.37 0.31 0.71 0.75 0.64 0.80 0.79 0.73
0.66 0.71 0.73 0.74 0.74 0.73 0.72 0.72 0.70 0.70 0.72 0.73 0.59 0.70 0.73 0.54 0.45 0.54 0.53 0.53 0.50 0.47 0.41 0.40 0.34 0.35 0.36 0.33 0.34 0.36 0.33 0.38 0.31 0.22 0.32 0.29 0.40 0.38 0.50 0.45 0.62 0.79 0.88 1.06 1.12 1.02 0.95

GFSGBSN_prec_pwat_021.txt.gz
Precipitable_Water
0.96 0.91 0.91 0.90 0.88 0.88 0.87 0.86 0.85 0.83 0.81 0.79 0.78 0.79 0.79 0.79 0.78 0.78 0.79 0.76 0.74 0.72 0.69 0.66 0.59 0.55 0.41 0.21 0.19 0.50 0.55 0.57 0.86 0.74 0.52 0.66 0.69 0.75 0.59 0.76 0.86 0.87 0.90 0.92 0.90 0.87 0.81
0.78 0.77 0.75 0.72 0.70 0.69 0.71 0.72 0.71 0.69 0.67 0.66 0.65 0.65 0.65 0.67 0.70 0.73 0.75 0.77 0.77 0.75 0.73 0.70 0.69 0.62 0.35 0.14 0.19 0.37 0.48 0.70 0.73 0.69 0.55 0.63 0.66 0.77 0.65 0.57 0.67 0.78 0.73 0.71 0.82 0.79 0.75
0.72 0.70 0.68 0.65 0.62 0.63 0.62 0.60 0.59 0.59 0.60 0.60 0.59 0.59 0.59 0.60 0.59 0.59 0.67 0.77 0.78 0.79 0.76 0.76 0.74 0.65 0.39 0.21 0.22 0.31 0.49 0.56 0.64 0.54 0.47 0.47 0.51 0.63 0.59 0.51 0.63 0.60 0.54 0.60 0.73 0.76 0.71
0.65 0.65 0.64 0.60 0.58 0.57 0.55 0.54 0.53 0.52 0.51 0.51 0.52 0.52 0.53 0.55 0.54 0.53 0.61 0.68 0.82 0.91 0.84 0.79 0.79 0.65 0.33 0.37 0.29 0.31 0.50 0.43 0.68 0.61 0.43 0.44 0.44 0.48 0.51 0.48 0.47 0.47 0.47 0.43 0.66 0.72 0.74
0.62 0.62 0.60 0.54 0.53 0.53 0.52 0.51 0.51 0.49 0.48 0.47 0.47 0.47 0.47 0.48 0.46 0.46 0.57 0.63 0.89 0.93 0.90 0.88 0.71 0.56 0.33 0.51 0.31 0.23 0.35 0.33 0.45 0.54 0.44 0.39 0.36 0.32 0.36 0.34 0.34 0.39 0.36 0.43 0.56 0.70 0.70
0.59 0.58 0.53 0.53 0.53 0.51 0.50 0.49 0.48 0.46 0.44 0.44 0.45 0.45 0.43 0.42 0.40 0.41 0.48 0.62 0.82 0.90 0.93 0.93 0.77 0.46 0.42 0.34 0.33 0.27 0.26 0.41 0.35 0.37 0.37 0.32 0.30 0.25 0.25 0.26 0.20 0.28 0.34 0.43 0.51 0.59 0.59
0.56 0.54 0.53 0.52 0.51 0.50 0.49 0.48 0.47 0.46 0.44 0.42 0.43 0.43 0.43 0.38 0.37 0.38 0.41 0.42 0.37 0.42 0.53 0.53 0.56 0.47 0.44 0.43 0.55 0.32 0.23 0.31 0.32 0.31 0.22 0.30 0.21 0.15 0.18 0.21 0.27 0.32 0.37 0.42 0.52 0.57 0.57
0.57 0.55 0.54 0.52 0.52 0.50 0.49 0.47 0.46 0.44 0.41 0.41 0.43 0.42 0.42 0.37 0.35 0.37 0.36 0.29 0.33 0.39 0.29 0.44 0.50 0.51 0.56 0.50 0.40 0.40 0.29 0.21 0.24 0.20 0.26 0.24 0.16 0.21 0.23 0.22 0.22 0.27 0.32 0.38 0.49 0.51 0.49
0.56 0.55 0.54 0.53 0.53 0.52 0.50 0.49 0.48 0.46 0.43 0.41 0.43 0.42 0.40 0.38 0.35 0.30 0.28 0.33 0.44 0.43 0.27 0.29 0.39 0.44 0.48 0.47 0.38 0.40 0.36 0.25 0.24 0.21 0.21 0.17 0.19 0.25 0.22 0.18 0.16 0.20 0.24 0.34 0.40 0.47 0.47
0.54 0.53 0.53 0.52 0.51 0.49 0.48 0.47 0.48 0.48 0.45 0.43 0.44 0.44 0.41 0.39 0.25 0.28 0.25 0.40 0.43 0.47 0.18 0.19 0.27 0.36 0.45 0.47 0.38 0.45 0.47 0.33 0.26 0.22 0.22 0.20 0.26 0.22 0.19 0.17 0.16 0.11 0.22 0.31 0.38 0.39 0.35
0.52 0.52 0.52 0.51 0.50 0.48 0.47 0.47 0.47 0.47 0.43 0.42 0.44 0.44 0.42 0.44 0.32 0.27 0.30 0.41 0.42 0.41 0.08 0.26 0.27 0.39 0.38 0.39 0.39 0.42 0.46 0.41 0.26 0.23 0.24 0.19 0.22 0.21 0.19 0.16 0.20 0.12 0.20 0.24 0.34 0.37 0.38
0.51 0.52 0.50 0.51 0.50 0.49 0.48 0.48 0.48 0.49 0.46 0.43 0.41 0.40 0.42 0.40 0.39 0.36 0.40 0.38 0.40 0.17 0.09 0.22 0.26 0.27 0.30 0.32 0.34 0.41 0.43 0.44 0.39 0.28 0.25 0.23 0.30 0.28 0.22 0.24 0.23 0.23 0.21 0.23 0.29 0.33 0.26
0.52 0.50 0.50 0.51 0.51 0.52 0.52 0.51 0.50 0.50 0.48 0.44 0.42 0.39 0.40 0.45 0.28 0.41 0.41 0.25 0.16 0.11 0.20 0.21 0.24 0.29 0.29 0.28 0.28 0.34 0.36 0.33 0.31 0.23 0.21 0.24 0.24 0.26 0.27 0.22 0.24 0.23 0.18 0.14 0.14 0.17 0.18
0.50 0.49 0.50 0.50 0.50 0.51 0.50 0.49 0.49 0.49 0.49 0.45 0.39 0.38 0.40 0.41 0.44 0.40 0.34 0.14 0.11 0.15 0.18 0.28 0.30 0.29 0.25 0.30 0.28 0.30 0.33 0.32 0.38 0.31 0.25 0.20 0.18 0.24 0.26 0.23 0.19 0.20 0.18 0.12 0.10 0.11 0.16
0.49 0.49 0.50 0.50 0.50 0.50 0.52 0.53 0.52 0.51 0.50 0.45 0.40 0.32 0.34 0.38 0.41 0.38 0.23 0.10 0.14 0.21 0.27 0.24 0.26 0.26 0.27 0.31 0.29 0.29 0.29 0.32 0.39 0.38 0.27 0.24 0.20 0.29 0.27 0.27 0.25 0.21 0.16 0.18 0.13 0.15 0.13
0.48 0.50 0.52 0.52 0.53 0.54 0.55 0.56 0.55 0.53 0.52 0.48 0.35 0.29 0.30 0.41 0.43 0.35 0.18 0.13 0.23 0.34 0.33 0.29 0.20 0.27 0.25 0.29 0.29 0.28 0.29 0.36 0.37 0.45 0.43 0.34 0.25 0.30 0.31 0.32 0.29 0.23 0.23 0.16 0.15 0.09 0.09
0.50 0.52 0.53 0.54 0.55 0.55 0.56 0.58 0.57 0.56 0.53 0.49 0.37 0.24 0.35 0.43 0.40 0.28 0.16 0.19 0.23 0.35 0.37 0.31 0.28 0.26 0.30 0.30 0.32 0.30 0.32 0.37 0.41 0.43 0.46 0.38 0.31 0.28 0.33 0.27 0.24 0.24 0.22 0.20 0.19 0.14 0.09
0.52 0.53 0.55 0.56 0.57 0.57 0.59 0.58 0.57 0.58 0.56 0.49 0.38 0.22 0.42 0.43 0.23 0.25 0.20 0.23 0.27 0.28 0.38 0.34 0.34 0.33 0.30 0.34 0.32 0.33 0.34 0.38 0.44 0.47 0.39 0.43 0.34 0.27 0.28 0.35 0.34 0.30 0.25 0.23 0.16 0.15 0.14
0.52 0.55 0.58 0.59 0.59 0.61 0.61 0.60 0.58 0.59 0.60 0.49 0.32 0.33 0.47 0.43 0.21 0.23 0.27 0.25 0.27 0.30 0.33 0.35 0.32 0.37 0.39 0.33 0.31 0.37 0.40 0.47 0.46 0.45 0.41 0.42 0.35 0.28 0.28 0.30 0.32 0.30 0.30 0.28 0.24 0.22 0.16
0.52 0.57 0.59 0.60 0.59 0.62 0.66 0.65 0.63 0.62 0.62 0.53 0.37 0.26 0.35 0.39 0.38 0.29 0.26 0.24 0.24 0.34 0.36 0.43 0.40 0.37 0.34 0.33 0.37 0.36 0.40 0.47 0.46 0.47 0.49 0.45 0.36 0.32 0.26 0.29 0.32 0.27 0.28 0.30 0.26 0.20 0.18
0.55 0.58 0.60 0.61 0.63 0.65 0.68 0.69 0.69 0.67 0.65 0.56 0.41 0.32 0.38 0.27 0.30 0.32 0.32 0.29 0.26 0.26 0.33 0.39 0.41 0.40 0.34 0.27 0.30 0.31 0.39 0.43 0.46 0.46 0.44 0.42 0.33 0.35 0.36 0.37 0.35 0.31 0.29 0.28 0.25 0.26 0.21
0.56 0.60 0.63 0.65 0.66 0.68 0.70 0.72 0.75 0.73 0.68 0.53 0.37 0.35 0.41 0.36 0.37 0.34 0.31 0.29 0.28 0.30 0.30 0.28 0.35 0.39 0.41 0.34 0.31 0.30 0.35 0.38 0.39 0.44 0.40 0.42 0.34 0.37 0.32 0.35 0.34 0.31 0.32 0.31 0.29 0.27 0.25
0.56 0.60 0.65 0.68 0.71 0.76 0.76 0.74 0.76 0.76 0.73 0.54 0.54 0.54 0.45 0.37 0.32 0.32 0.31 0.30 0.31 0.34 0.34 0.37 0.39 0.37 0.34 0.38 0.43 0.43 0.41 0.40 0.40 0.39 0.38 0.36 0.35 0.32 0.27 0.34 0.32 0.26 0.29 0.31 0.31 0.33 0.29
0.60 0.62 0.64 0.67 0.70 0.75 0.81 0.85 0.80 0.78 0.77 0.68 0.61 0.55 0.41 0.29 0.32 0.31 0.33 0.34 0.33 0.35 0.32 0.35 0.36 0.34 0.39 0.46 0.43 0.37 0.35 0.32 0.32 0.34 0.41 0.36 0.34 0.32 0.27 0.30 0.21 0.28 0.35 0.37 0.33 0.32 0.31
0.60 0.60 0.58 0.57 0.61 0.67 0.77 0.85 0.88 0.84 0.80 0.71 0.69 0.57 0.45 0.32 0.34 0.32 0.33 0.33 0.35 0.36 0.34 0.34 0.37 0.42 0.47 0.42 0.30 0.26 0.26 0.25 0.23 0.24 0.32 0.36 0.34 0.27 0.23 0.24 0.27 0.29 0.33 0.39 0.38 0.31 0.45
0.57 0.55 0.54 0.53 0.56 0.62 0.73 0.82 0.90 0.90 0.87 0.78 0.71 0.68 0.54 0.39 0.34 0.40 0.35 0.35 0.30 0.30 0.32 0.36 0.43 0.47 0.44 0.36 0.28 0.21 0.17 0.20 0.18 0.22 0.26 0.30 0.36 0.30 0.26 0.19 0.18 0.29 0.38 0.53 0.54 0.28 0.54
0.54 0.53 0.52 0.53 0.54 0.59 0.70 0.79 0.89 0.93 0.91 0.84 0.73 0.73 0.56 0.42 0.45 0.45 0.37 0.35 0.40 0.35 0.32 0.34 0.36 0.35 0.43 0.30 0.22 0.20 0.20 0.25 0.16 0.16 0.22 0.23 0.26 0.23 0.23 0.22 0.26 0.34 0.47 0.68 0.32 0.34 0.62
0.51 0.52 0.52 0.53 0.52 0.56 0.67 0.80 0.89 0.94 0.93 0.88 0.77 0.79 0.61 0.47 0.47 0.50 0.50 0.42 0.42 0.40 0.30 0.35 0.33 0.35 0.34 0.27 0.25 0.24 0.24 0.26 0.22 0.20 0.19 0.20 0.21 0.23 0.24 0.21 0.18 0.34 0.39 0.37 0.59 0.69 0.67
0.49 0.51 0.50 0.51 0.53 0.57 0.68 0.83 0.92 0.97 0.96 0.94 0.74 0.84 0.80 0.59 0.51 0.59 0.57 0.57 0.52 0.48 0.40 0.40 0.33 0.33 0.36 0.31 0.31 0.32 0.27 0.29 0.28 0.20 0.31 0.20 0.23 0.29 0.24 0.23 0.31 0.39 0.43 0.61 0.67 0.61 0.71

GFSGBSN_prec_pwat_024.txt.gz
Precipitable_Water
0.71 0.69 0.66 0.62 0.60 0.60 0.59 0.58 0.58 0.58 0.59 0.59 0.59 0.58 0.58 0.57 0.58 0.59 0.61 0.68 0.75 0.78 0.76 0.74 0.72 0.65 0.49 0.26 0.18 0.37 0.52 0.53 0.66 0.57 0.53 0.57 0.72 0.77 0.62 0.72 0.87 0.93 1.00 0.99 0.98 0.93 0.89
0.64 0.64 0.61 0.57 0.57 0.54 0.52 0.52 0.51 0.51 0.51 0.51 0.52 0.53 0.53 0.53 0.52 0.54 0.56 0.58 0.67 0.75 0.80 0.79 0.78 0.74 0.46 0.23 0.24 0.25 0.48 0.50 0.64 0.60 0.55 0.56 0.62 0.75 0.72 0.71 0.76 0.88 0.96 0.93 0.79 0.74 0.80
0.62 0.60 0.54 0.53 0.51 0.51 0.50 0.49 0.48 0.48 0.48 0.48 0.48 0.48 0.48 0.47 0.46 0.48 0.51 0.56 0.61 0.72 0.90 0.92 0.83 0.73 0.50 0.33 0.27 0.26 0.52 0.61 0.73 0.67 0.53 0.57 0.64 0.68 0.64 0.66 0.64 0.79 0.70 0.68 0.68 0.70 0.70
0.60 0.53 0.53 0.52 0.51 0.50 0.48 0.47 0.45 0.45 0.45 0.44 0.44 0.42 0.43 0.42 0.41 0.42 0.45 0.49 0.63 0.78 0.87 0.89 0.89 0.73 0.45 0.51 0.45 0.35 0.51 0.65 0.84 0.79 0.67 0.72 0.71 0.66 0.57 0.54 0.49 0.51 0.53 0.48 0.63 0.72 0.71
0.56 0.56 0.56 0.51 0.49 0.48 0.46 0.45 0.44 0.44 0.44 0.44 0.43 0.42 0.38 0.39 0.38 0.37 0.39 0.48 0.69 0.75 0.78 0.89 0.77 0.65 0.44 0.56 0.42 0.33 0.53 0.47 0.70 0.69 0.70 0.70 0.68 0.48 0.53 0.43 0.37 0.40 0.38 0.46 0.52 0.70 0.73
0.56 0.53 0.52 0.52 0.51 0.50 0.48 0.47 0.45 0.45 0.44 0.43 0.42 0.42 0.39 0.37 0.36 0.34 0.34 0.50 0.65 0.70 0.75 0.85 0.78 0.55 0.51 0.41 0.44 0.36 0.49 0.44 0.56 0.59 0.47 0.42 0.37 0.23 0.30 0.33 0.25 0.31 0.35 0.41 0.44 0.59 0.69
0.53 0.52 0.51 0.51 0.50 0.48 0.47 0.46 0.45 0.45 0.46 0.45 0.44 0.40 0.37 0.36 0.36 0.36 0.32 0.36 0.36 0.42 0.39 0.41 0.55 0.51 0.53 0.50 0.55 0.34 0.34 0.42 0.53 0.49 0.25 0.27 0.19 0.14 0.16 0.23 0.29 0.34 0.35 0.38 0.44 0.60 0.62
0.50 0.50 0.50 0.49 0.49 0.47 0.46 0.44 0.43 0.43 0.44 0.45 0.44 0.41 0.38 0.35 0.35 0.34 0.34 0.26 0.29 0.32 0.20 0.26 0.29 0.44 0.63 0.59 0.45 0.36 0.36 0.33 0.30 0.26 0.28 0.24 0.16 0.19 0.22 0.21 0.23 0.27 0.28 0.33 0.44 0.53 0.56
0.51 0.51 0.50 0.50 0.49 0.47 0.46 0.45 0.44 0.43 0.42 0.43 0.42 0.38 0.36 0.35 0.34 0.34 0.31 0.31 0.44 0.41 0.22 0.21 0.26 0.27 0.38 0.53 0.43 0.42 0.32 0.34 0.29 0.25 0.23 0.19 0.21 0.23 0.20 0.21 0.20 0.19 0.23 0.30 0.36 0.49 0.54
0.52 0.51 0.48 0.48 0.47 0.47 0.47 0.46 0.44 0.43 0.42 0.43 0.43 0.39 0.37 0.33 0.31 0.32 0.31 0.38 0.41 0.42 0.17 0.17 0.20 0.28 0.32 0.44 0.40 0.51 0.36 0.34 0.29 0.26 0.25 0.23 0.28 0.23 0.21 0.19 0.19 0.14 0.20 0.29 0.33 0.38 0.38
0.51 0.49 0.48 0.49 0.49 0.49 0.49 0.49 0.48 0.47 0.45 0.43 0.41 0.37 0.36 0.40 0.32 0.29 0.34 0.40 0.41 0.40 0.08 0.25 0.25 0.35 0.34 0.32 0.40 0.41 0.51 0.30 0.24 0.28 0.28 0.23 0.24 0.23 0.19 0.18 0.21 0.15 0.18 0.20 0.28 0.31 0.37
0.50 0.48 0.51 0.50 0.51 0.51 0.52 0.51 0.50 0.48 0.46 0.45 0.40 0.36 0.35 0.36 0.37 0.37 0.39 0.40 0.37 0.17 0.10 0.20 0.24 0.26 0.27 0.33 0.35 0.41 0.44 0.38 0.35 0.30 0.31 0.29 0.31 0.27 0.25 0.25 0.23 0.24 0.18 0.18 0.21 0.27 0.24
0.49 0.50 0.52 0.53 0.54 0.54 0.51 0.50 0.49 0.47 0.45 0.43 0.40 0.36 0.37 0.36 0.25 0.36 0.36 0.31 0.15 0.11 0.20 0.23 0.23 0.27 0.27 0.26 0.32 0.35 0.36 0.36 0.33 0.25 0.23 0.29 0.27 0.30 0.30 0.25 0.25 0.23 0.20 0.14 0.12 0.13 0.15
0.50 0.52 0.53 0.52 0.53 0.50 0.50 0.52 0.51 0.50 0.47 0.43 0.39 0.39 0.37 0.38 0.36 0.35 0.29 0.19 0.11 0.18 0.23 0.32 0.30 0.28 0.26 0.28 0.27 0.31 0.34 0.33 0.38 0.35 0.28 0.24 0.20 0.26 0.29 0.25 0.22 0.22 0.20 0.13 0.10 0.10 0.14
0.49 0.52 0.53 0.52 0.51 0.53 0.53 0.53 0.51 0.50 0.48 0.44 0.41 0.35 0.35 0.35 0.36 0.37 0.23 0.12 0.12 0.29 0.34 0.29 0.28 0.25 0.26 0.31 0.30 0.29 0.29 0.33 0.36 0.39 0.29 0.26 0.25 0.30 0.29 0.29 0.27 0.23 0.17 0.18 0.16 0.19 0.16
0.51 0.52 0.52 0.54 0.54 0.56 0.56 0.57 0.55 0.53 0.51 0.47 0.37 0.33 0.32 0.37 0.39 0.35 0.23 0.16 0.25 0.33 0.35 0.32 0.24 0.32 0.30 0.32 0.30 0.29 0.28 0.37 0.37 0.42 0.46 0.35 0.27 0.32 0.31 0.30 0.28 0.25 0.24 0.17 0.15 0.12 0.11
0.50 0.51 0.54 0.55 0.54 0.57 0.60 0.61 0.60 0.57 0.54 0.50 0.36 0.27 0.35 0.40 0.39 0.28 0.20 0.22 0.22 0.28 0.31 0.30 0.31 0.31 0.35 0.34 0.35 0.32 0.33 0.38 0.44 0.44 0.50 0.42 0.35 0.31 0.33 0.25 0.23 0.24 0.23 0.21 0.19 0.15 0.12
0.48 0.50 0.53 0.56 0.55 0.58 0.64 0.65 0.64 0.62 0.57 0.50 0.35 0.22 0.38 0.41 0.26 0.27 0.22 0.24 0.26 0.27 0.33 0.32 0.34 0.31 0.33 0.38 0.36 0.37 0.39 0.41 0.45 0.49 0.42 0.45 0.40 0.33 0.30 0.34 0.32 0.29 0.25 0.23 0.16 0.16 0.16
0.51 0.52 0.54 0.58 0.58 0.59 0.62 0.67 0.69 0.68 0.63 0.51 0.34 0.32 0.44 0.40 0.22 0.24 0.29 0.28 0.28 0.29 0.31 0.33 0.33 0.36 0.38 0.37 0.36 0.41 0.45 0.48 0.46 0.48 0.46 0.48 0.36 0.32 0.32 0.35 0.35 0.28 0.29 0.27 0.24 0.21 0.18
0.52 0.54 0.57 0.58 0.61 0.63 0.65 0.70 0.73 0.74 0.69 0.59 0.41 0.28 0.32 0.37 0.36 0.30 0.27 0.27 0.26 0.34 0.31 0.31 0.39 0.40 0.34 0.30 0.41 0.40 0.41 0.46 0.47 0.46 0.48 0.51 0.40 0.34 0.29 0.32 0.36 0.30 0.30 0.29 0.27 0.20 0.19
0.56 0.57 0.60 0.62 0.64 0.66 0.69 0.74 0.78 0.78 0.74 0.66 0.48 0.34 0.37 0.26 0.29 0.31 0.33 0.29 0.27 0.27 0.32 0.32 0.37 0.39 0.35 0.27 0.33 0.36 0.43 0.44 0.46 0.47 0.45 0.45 0.36 0.40 0.43 0.42 0.38 0.34 0.31 0.31 0.28 0.28 0.22
0.56 0.58 0.60 0.58 0.58 0.61 0.65 0.74 0.82 0.85 0.79 0.65 0.45 0.39 0.42 0.35 0.36 0.31 0.31 0.29 0.27 0.29 0.30 0.28 0.29 0.37 0.38 0.34 0.34 0.37 0.41 0.42 0.41 0.46 0.43 0.44 0.38 0.40 0.36 0.40 0.39 0.33 0.35 0.34 0.32 0.32 0.30
0.55 0.56 0.55 0.54 0.55 0.56 0.59 0.68 0.78 0.88 0.85 0.66 0.65 0.59 0.47 0.36 0.34 0.30 0.29 0.28 0.30 0.32 0.33 0.36 0.33 0.32 0.32 0.38 0.44 0.44 0.43 0.45 0.45 0.42 0.40 0.41 0.38 0.35 0.30 0.37 0.36 0.30 0.33 0.34 0.34 0.35 0.33
0.53 0.53 0.53 0.53 0.55 0.56 0.58 0.62 0.72 0.87 0.89 0.78 0.70 0.63 0.43 0.31 0.33 0.32 0.31 0.30 0.31 0.34 0.31 0.34 0.35 0.32 0.38 0.46 0.45 0.40 0.35 0.36 0.39 0.40 0.42 0.39 0.38 0.36 0.31 0.35 0.23 0.32 0.41 0.40 0.36 0.36 0.37
0.51 0.52 0.53 0.53 0.55 0.56 0.56 0.62 0.72 0.85 0.92 0.82 0.78 0.65 0.49 0.34 0.36 0.35 0.36 0.33 0.33 0.33 0.31 0.32 0.36 0.41 0.44 0.39 0.33 0.27 0.25 0.26 0.27 0.32 0.35 0.38 0.37 0.31 0.28 0.28 0.32 0.34 0.37 0.37 0.37 0.35 0.40
0.49 0.49 0.50 0.51 0.53 0.53 0.56 0.62 0.74 0.88 0.94 0.87 0.82 0.79 0.62 0.43 0.37 0.41 0.37 0.37 0.31 0.31 0.31 0.34 0.40 0.44 0.42 0.35 0.30 0.22 0.19 0.22 0.20 0.24 0.29 0.36 0.38 0.33 0.29 0.25 0.22 0.33 0.38 0.54 0.52 0.36 0.52
0.47 0.47 0.47 0.49 0.51 0.52 0.59 0.67 0.79 0.92 0.96 0.91 0.82 0.86 0.66 0.49 0.50 0.48 0.40 0.36 0.41 0.36 0.32 0.34 0.35 0.36 0.41 0.34 0.26 0.22 0.21 0.25 0.20 0.21 0.26 0.24 0.31 0.28 0.27 0.25 0.28 0.37 0.52 0.70 0.35 0.53 0.78
0.47 0.46 0.46 0.49 0.50 0.55 0.61 0.72 0.83 0.96 1.00 0.95 0.85 0.89 0.71 0.55 0.54 0.56 0.53 0.44 0.41 0.39 0.31 0.35 0.32 0.35 0.34 0.30 0.26 0.23 0.23 0.28 0.24 0.23 0.24 0.25 0.23 0.23 0.26 0.24 0.22 0.36 0.38 0.40 0.67 0.82 0.79
0.51 0.48 0.47 0.51 0.52 0.58 0.61 0.71 0.85 0.96 1.02 1.00 0.81 0.91 0.88 0.65 0.57 0.64 0.62 0.62 0.57 0.51 0.42 0.41 0.32 0.34 0.34 0.32 0.33 0.32 0.26 0.29 0.28 0.22 0.29 0.22 0.27 0.27 0.28 0.26 0.33 0.40 0.39 0.51 0.57 0.64 0.74

GFSGBSN_prec_pwat_030.txt.gz
Precipitable_Water
0.52 0.51 0.49 0.48 0.46 0.45 0.44 0.44 0.43 0.42 0.41 0.41 0.40 0.39 0.39 0.39 0.40 0.41 0.41 0.41 0.43 0.45 0.52 0.61 0.71 0.77 0.68 0.45 0.31 0.44 0.45 0.44 0.42 0.31 0.29 0.38 0.71 0.86 0.79 0.92 0.98 0.92 1.08 1.20 1.23 1.06 0.90
0.50 0.51 0.51 0.49 0.47 0.46 0.46 0.45 0.45 0.44 0.42 0.41 0.39 0.39 0.38 0.37 0.37 0.36 0.37 0.39 0.39 0.42 0.55 0.67 0.76 0.82 0.62 0.38 0.57 0.49 0.52 0.44 0.35 0.31 0.31 0.34 0.55 0.88 0.89 0.88 0.83 0.96 0.96 1.12 1.26 1.17 0.95
0.51 0.50 0.50 0.49 0.47 0.45 0.44 0.43 0.43 0.41 0.41 0.40 0.40 0.39 0.38 0.36 0.35 0.34 0.33 0.34 0.36 0.44 0.56 0.65 0.74 0.74 0.57 0.52 0.60 0.40 0.48 0.48 0.42 0.35 0.30 0.32 0.50 0.65 0.89 0.80 0.89 0.87 0.82 0.89 0.96 0.95 0.83
0.51 0.49 0.49 0.47 0.45 0.43 0.43 0.43 0.42 0.40 0.40 0.40 0.39 0.38 0.36 0.33 0.31 0.31 0.31 0.33 0.36 0.45 0.59 0.59 0.70 0.67 0.45 0.72 0.71 0.54 0.33 0.45 0.45 0.48 0.40 0.40 0.53 0.57 0.70 0.88 0.80 0.69 0.70 0.66 0.85 0.91 0.80
0.49 0.48 0.47 0.47 0.46 0.45 0.45 0.43 0.42 0.41 0.40 0.39 0.38 0.36 0.33 0.31 0.29 0.29 0.30 0.35 0.42 0.52 0.64 0.60 0.57 0.52 0.40 0.69 0.62 0.64 0.46 0.35 0.46 0.57 0.52 0.51 0.52 0.47 0.57 0.63 0.62 0.59 0.49 0.56 0.70 0.82 0.74
0.47 0.46 0.46 0.47 0.47 0.46 0.45 0.44 0.44 0.42 0.40 0.39 0.38 0.37 0.34 0.30 0.27 0.31 0.35 0.38 0.46 0.58 0.75 0.66 0.62 0.42 0.42 0.45 0.60 0.63 0.60 0.43 0.46 0.56 0.53 0.54 0.52 0.39 0.43 0.47 0.38 0.46 0.47 0.50 0.58 0.78 0.69
0.48 0.47 0.47 0.47 0.47 0.47 0.46 0.45 0.44 0.42 0.40 0.39 0.37 0.36 0.33 0.31 0.28 0.34 0.40 0.32 0.24 0.37 0.35 0.40 0.48 0.33 0.42 0.54 0.55 0.55 0.60 0.44 0.51 0.57 0.44 0.53 0.45 0.31 0.32 0.42 0.49 0.54 0.48 0.41 0.51 0.63 0.69
0.50 0.49 0.48 0.48 0.49 0.48 0.46 0.45 0.43 0.41 0.39 0.38 0.37 0.35 0.34 0.28 0.30 0.37 0.41 0.30 0.25 0.27 0.19 0.24 0.24 0.32 0.41 0.52 0.41 0.47 0.56 0.42 0.46 0.44 0.55 0.50 0.33 0.42 0.44 0.46 0.45 0.47 0.44 0.41 0.44 0.55 0.57
0.49 0.48 0.50 0.50 0.49 0.47 0.46 0.45 0.44 0.44 0.41 0.39 0.38 0.36 0.33 0.29 0.33 0.34 0.32 0.30 0.28 0.30 0.20 0.18 0.17 0.17 0.19 0.31 0.33 0.38 0.46 0.44 0.42 0.44 0.51 0.39 0.38 0.48 0.45 0.43 0.35 0.42 0.39 0.39 0.42 0.46 0.57
0.49 0.51 0.52 0.51 0.48 0.47 0.49 0.50 0.48 0.47 0.45 0.43 0.40 0.36 0.34 0.34 0.28 0.36 0.27 0.24 0.26 0.28 0.13 0.11 0.15 0.17 0.18 0.20 0.22 0.43 0.39 0.43 0.48 0.41 0.52 0.47 0.49 0.39 0.40 0.36 0.38 0.29 0.42 0.39 0.44 0.42 0.36
0.49 0.51 0.52 0.51 0.50 0.50 0.52 0.51 0.48 0.44 0.42 0.42 0.41 0.37 0.36 0.40 0.34 0.31 0.24 0.24 0.24 0.27 0.07 0.22 0.21 0.34 0.25 0.17 0.21 0.27 0.47 0.38 0.44 0.40 0.48 0.42 0.39 0.34 0.28 0.31 0.32 0.23 0.27 0.31 0.35 0.38 0.40
0.49 0.50 0.50 0.50 0.51 0.50 0.49 0.48 0.47 0.45 0.45 0.44 0.43 0.41 0.44 0.40 0.42 0.33 0.28 0.25 0.25 0.16 0.08 0.27 0.35 0.33 0.28 0.22 0.22 0.33 0.39 0.36 0.49 0.43 0.44 0.47 0.56 0.38 0.29 0.29 0.25 0.24 0.23 0.23 0.23 0.29 0.27
0.49 0.49 0.50 0.50 0.50 0.49 0.48 0.48 0.48 0.48 0.49 0.47 0.44 0.43 0.49 0.48 0.32 0.30 0.28 0.24 0.14 0.13 0.17 0.25 0.33 0.34 0.32 0.31 0.23 0.26 0.36 0.33 0.25 0.30 0.33 0.42 0.46 0.48 0.34 0.29 0.27 0.24 0.21 0.17 0.16 0.15 0.18
0.49 0.49 0.49 0.49 0.50 0.49 0.50 0.50 0.51 0.52 0.53 0.50 0.46 0.49 0.53 0.49 0.37 0.31 0.29 0.21 0.14 0.17 0.27 0.32 0.31 0.32 0.29 0.34 0.34 0.27 0.33 0.34 0.26 0.31 0.35 0.30 0.26 0.38 0.33 0.28 0.25 0.22 0.20 0.17 0.13 0.14 0.15
0.51 0.51 0.52 0.52 0.54 0.55 0.54 0.53 0.53 0.54 0.55 0.52 0.49 0.53 0.51 0.47 0.33 0.38 0.30 0.19 0.24 0.28 0.33 0.29 0.28 0.30 0.36 0.43 0.41 0.39 0.29 0.33 0.33 0.28 0.29 0.31 0.29 0.38 0.36 0.32 0.31 0.27 0.19 0.23 0.18 0.19 0.16
0.53 0.54 0.55 0.57 0.56 0.54 0.53 0.54 0.55 0.55 0.56 0.55 0.52 0.52 0.54 0.49 0.34 0.37 0.29 0.19 0.25 0.31 0.28 0.27 0.24 0.30 0.32 0.36 0.39 0.44 0.37 0.36 0.37 0.34 0.37 0.36 0.32 0.35 0.36 0.37 0.32 0.29 0.30 0.20 0.19 0.15 0.15
0.56 0.56 0.57 0.57 0.53 0.51 0.51 0.53 0.53 0.56 0.57 0.58 0.57 0.43 0.47 0.50 0.41 0.35 0.23 0.21 0.24 0.27 0.28 0.28 0.25 0.27 0.33 0.41 0.44 0.44 0.45 0.47 0.49 0.46 0.39 0.35 0.35 0.34 0.39 0.32 0.28 0.27 0.29 0.27 0.22 0.18 0.18
0.57 0.58 0.58 0.57 0.53 0.49 0.49 0.51 0.52 0.53 0.60 0.60 0.58 0.43 0.52 0.46 0.31 0.27 0.24 0.25 0.29 0.29 0.31 0.28 0.26 0.28 0.38 0.43 0.44 0.48 0.52 0.63 0.63 0.52 0.44 0.39 0.32 0.32 0.39 0.40 0.39 0.32 0.28 0.31 0.20 0.18 0.20
0.58 0.58 0.57 0.56 0.54 0.52 0.49 0.50 0.52 0.51 0.58 0.63 0.54 0.50 0.54 0.44 0.28 0.26 0.25 0.24 0.24 0.31 0.30 0.24 0.24 0.32 0.36 0.39 0.40 0.52 0.57 0.71 0.64 0.53 0.53 0.54 0.35 0.30 0.39 0.42 0.39 0.32 0.31 0.32 0.32 0.25 0.20
0.55 0.54 0.55 0.55 0.55 0.53 0.52 0.52 0.53 0.55 0.59 0.69 0.62 0.45 0.50 0.44 0.39 0.31 0.27 0.24 0.26 0.35 0.34 0.31 0.24 0.31 0.33 0.37 0.42 0.46 0.51 0.64 0.64 0.59 0.54 0.55 0.44 0.37 0.34 0.36 0.40 0.34 0.34 0.33 0.32 0.24 0.24
0.52 0.52 0.51 0.52 0.53 0.54 0.53 0.55 0.55 0.57 0.62 0.70 0.66 0.51 0.54 0.39 0.37 0.34 0.32 0.32 0.35 0.29 0.34 0.28 0.27 0.33 0.31 0.30 0.36 0.38 0.47 0.51 0.65 0.61 0.54 0.54 0.44 0.45 0.43 0.46 0.47 0.37 0.34 0.33 0.28 0.31 0.24
0.52 0.52 0.51 0.51 0.53 0.52 0.51 0.54 0.57 0.58 0.64 0.63 0.60 0.58 0.59 0.49 0.45 0.36 0.33 0.33 0.31 0.28 0.25 0.23 0.25 0.30 0.27 0.28 0.37 0.37 0.45 0.46 0.54 0.55 0.51 0.53 0.44 0.51 0.46 0.50 0.54 0.46 0.38 0.35 0.33 0.31 0.33
0.52 0.50 0.50 0.51 0.52 0.51 0.50 0.53 0.55 0.59 0.65 0.59 0.74 0.74 0.63 0.48 0.43 0.38 0.36 0.33 0.29 0.32 0.32 0.29 0.32 0.26 0.23 0.30 0.41 0.41 0.42 0.43 0.51 0.50 0.48 0.49 0.50 0.48 0.41 0.54 0.52 0.45 0.43 0.39 0.35 0.34 0.34
0.52 0.51 0.50 0.49 0.49 0.49 0.49 0.54 0.58 0.62 0.67 0.69 0.76 0.74 0.56 0.43 0.44 0.40 0.42 0.42 0.36 0.34 0.29 0.30 0.31 0.32 0.33 0.37 0.37 0.36 0.37 0.38 0.44 0.48 0.50 0.45 0.46 0.48 0.43 0.53 0.41 0.50 0.55 0.50 0.40 0.37 0.37
0.48 0.50 0.53 0.55 0.57 0.56 0.55 0.58 0.60 0.64 0.70 0.73 0.86 0.75 0.60 0.46 0.49 0.46 0.44 0.43 0.43 0.37 0.34 0.34 0.38 0.44 0.35 0.33 0.30 0.29 0.30 0.29 0.33 0.41 0.42 0.46 0.44 0.41 0.42 0.48 0.51 0.53 0.54 0.49 0.45 0.42 0.44
0.65 0.68 0.68 0.69 0.71 0.69 0.63 0.62 0.63 0.67 0.75 0.84 0.90 0.91 0.70 0.52 0.47 0.54 0.50 0.46 0.44 0.39 0.33 0.33 0.45 0.42 0.38 0.28 0.28 0.24 0.28 0.33 0.24 0.27 0.40 0.42 0.45 0.41 0.43 0.43 0.39 0.53 0.57 0.60 0.56 0.43 0.70
0.68 0.67 0.67 0.69 0.71 0.72 0.69 0.65 0.67 0.76 0.88 0.92 0.91 0.97 0.76 0.57 0.60 0.59 0.50 0.49 0.53 0.48 0.39 0.34 0.39 0.36 0.45 0.37 0.25 0.25 0.28 0.36 0.27 0.26 0.27 0.34 0.39 0.37 0.40 0.40 0.50 0.64 0.62 0.62 0.45 0.63 0.86
0.63 0.63 0.65 0.68 0.69 0.68 0.65 0.68 0.78 0.90 0.95 0.96 0.91 1.01 0.80 0.64 0.65 0.67 0.66 0.57 0.55 0.49 0.39 0.39 0.36 0.44 0.44 0.37 0.33 0.35 0.37 0.35 0.32 0.37 0.35 0.31 0.33 0.36 0.38 0.38 0.42 0.65 0.66 0.59 0.83 0.89 0.85
0.64 0.64 0.65 0.67 0.69 0.67 0.73 0.80 0.90 0.95 1.00 1.03 0.86 1.01 0.98 0.74 0.68 0.79 0.79 0.78 0.71 0.65 0.54 0.50 0.39 0.36 0.41 0.39 0.39 0.37 0.34 0.34 0.36 0.30 0.40 0.35 0.41 0.37 0.41 0.41 0.58 0.63 0.63 0.73 0.73 0.80 0.81

GFSGBSN_prec_pwat_033.txt.gz
Precipitable_Water
0.50 0.48 0.47 0.47 0.45 0.44 0.43 0.43 0.43 0.42 0.42 0.41 0.40 0.39 0.38 0.36 0.35 0.35 0.35 0.36 0.39 0.40 0.43 0.53 0.65 0.70 0.61 0.46 0.43 0.54 0.51 0.43 0.45 0.36 0.25 0.23 0.52 0.66 0.64 0.90 1.03 0.98 1.10 1.19 1.11 1.19 1.19
0.49 0.49 0.48 0.46 0.44 0.42 0.42 0.41 0.41 0.39 0.39 0.38 0.37 0.37 0.36 0.35 0.34 0.32 0.32 0.34 0.35 0.37 0.40 0.56 0.64 0.69 0.50 0.35 0.62 0.61 0.58 0.48 0.37 0.32 0.26 0.21 0.41 0.72 0.74 0.87 0.93 0.99 1.05 1.06 1.14 1.08 1.22
0.49 0.48 0.47 0.46 0.44 0.43 0.43 0.42 0.42 0.41 0.40 0.38 0.37 0.37 0.36 0.34 0.31 0.29 0.31 0.34 0.38 0.41 0.42 0.55 0.64 0.58 0.45 0.36 0.60 0.65 0.59 0.51 0.39 0.30 0.24 0.23 0.33 0.58 0.80 0.85 1.03 1.00 0.90 1.01 1.18 1.18 1.04
0.48 0.47 0.47 0.47 0.46 0.45 0.44 0.44 0.43 0.41 0.40 0.39 0.37 0.35 0.34 0.32 0.29 0.30 0.34 0.37 0.39 0.44 0.49 0.62 0.65 0.54 0.30 0.41 0.61 0.64 0.62 0.59 0.47 0.39 0.29 0.31 0.32 0.47 0.65 0.84 0.90 0.85 0.83 0.73 0.92 1.00 1.00
0.45 0.46 0.46 0.45 0.45 0.44 0.44 0.43 0.42 0.41 0.39 0.38 0.37 0.35 0.33 0.31 0.28 0.32 0.37 0.39 0.40 0.42 0.56 0.68 0.58 0.52 0.23 0.50 0.47 0.60 0.61 0.55 0.50 0.43 0.39 0.35 0.36 0.37 0.50 0.58 0.60 0.70 0.59 0.61 0.66 0.85 0.89
0.45 0.46 0.47 0.46 0.46 0.45 0.45 0.45 0.44 0.43 0.41 0.40 0.39 0.37 0.34 0.33 0.29 0.32 0.38 0.39 0.35 0.59 0.64 0.66 0.64 0.38 0.31 0.23 0.46 0.60 0.57 0.49 0.45 0.42 0.43 0.33 0.35 0.30 0.37 0.44 0.35 0.46 0.55 0.56 0.56 0.70 0.84
0.46 0.47 0.48 0.47 0.47 0.47 0.47 0.46 0.45 0.44 0.43 0.41 0.39 0.37 0.33 0.31 0.30 0.35 0.40 0.35 0.19 0.22 0.24 0.16 0.16 0.34 0.33 0.52 0.55 0.52 0.63 0.53 0.41 0.45 0.35 0.36 0.30 0.22 0.26 0.36 0.45 0.56 0.56 0.48 0.56 0.66 0.76
0.48 0.49 0.49 0.48 0.48 0.47 0.46 0.45 0.45 0.45 0.44 0.42 0.41 0.39 0.36 0.33 0.31 0.38 0.44 0.23 0.18 0.21 0.13 0.15 0.15 0.16 0.20 0.44 0.35 0.43 0.56 0.49 0.39 0.37 0.43 0.38 0.27 0.31 0.36 0.35 0.39 0.48 0.52 0.50 0.56 0.56 0.69
0.48 0.48 0.48 0.48 0.47 0.46 0.47 0.48 0.47 0.46 0.45 0.43 0.42 0.41 0.38 0.37 0.32 0.37 0.33 0.21 0.23 0.22 0.13 0.15 0.20 0.17 0.16 0.22 0.31 0.35 0.44 0.45 0.36 0.39 0.41 0.35 0.31 0.42 0.44 0.36 0.32 0.38 0.42 0.46 0.47 0.48 0.53
0.48 0.48 0.47 0.46 0.46 0.46 0.47 0.46 0.44 0.45 0.45 0.43 0.42 0.40 0.37 0.41 0.28 0.31 0.26 0.23 0.23 0.24 0.12 0.21 0.21 0.25 0.28 0.18 0.19 0.39 0.43 0.39 0.39 0.35 0.45 0.45 0.50 0.48 0.42 0.39 0.37 0.30 0.42 0.47 0.46 0.45 0.39
0.48 0.47 0.46 0.46 0.47 0.46 0.45 0.45 0.46 0.46 0.46 0.46 0.47 0.40 0.38 0.44 0.37 0.31 0.29 0.25 0.25 0.27 0.06 0.16 0.31 0.42 0.34 0.22 0.16 0.16 0.46 0.38 0.31 0.35 0.46 0.42 0.46 0.46 0.42 0.37 0.44 0.36 0.41 0.42 0.44 0.44 0.44
0.49 0.48 0.49 0.50 0.49 0.49 0.49 0.48 0.47 0.47 0.46 0.46 0.47 0.45 0.44 0.39 0.42 0.36 0.33 0.30 0.27 0.15 0.08 0.16 0.30 0.31 0.28 0.29 0.26 0.24 0.29 0.41 0.38 0.36 0.42 0.48 0.67 0.57 0.49 0.46 0.49 0.49 0.45 0.39 0.40 0.42 0.31
0.52 0.52 0.52 0.52 0.54 0.52 0.48 0.47 0.46 0.46 0.46 0.46 0.47 0.48 0.47 0.51 0.31 0.38 0.40 0.30 0.16 0.12 0.19 0.15 0.25 0.28 0.30 0.32 0.34 0.35 0.25 0.37 0.29 0.25 0.27 0.44 0.46 0.63 0.52 0.44 0.42 0.43 0.36 0.22 0.18 0.23 0.21
0.56 0.54 0.56 0.56 0.55 0.51 0.47 0.46 0.44 0.44 0.43 0.45 0.47 0.53 0.50 0.56 0.51 0.45 0.37 0.28 0.17 0.20 0.21 0.23 0.22 0.28 0.29 0.37 0.37 0.37 0.33 0.25 0.40 0.29 0.31 0.33 0.30 0.46 0.58 0.39 0.32 0.29 0.25 0.16 0.12 0.13 0.18
0.57 0.57 0.58 0.58 0.55 0.50 0.47 0.47 0.43 0.41 0.40 0.42 0.52 0.54 0.53 0.58 0.56 0.43 0.31 0.22 0.20 0.23 0.23 0.19 0.18 0.22 0.28 0.36 0.41 0.41 0.39 0.33 0.32 0.37 0.27 0.33 0.30 0.48 0.53 0.49 0.37 0.28 0.19 0.23 0.19 0.21 0.18
0.59 0.58 0.59 0.59 0.56 0.52 0.49 0.48 0.46 0.42 0.42 0.44 0.53 0.55 0.51 0.55 0.49 0.39 0.30 0.24 0.24 0.26 0.27 0.25 0.20 0.25 0.26 0.33 0.40 0.42 0.41 0.49 0.46 0.58 0.51 0.35 0.33 0.45 0.51 0.60 0.41 0.31 0.32 0.19 0.19 0.15 0.14
0.58 0.59 0.59 0.59 0.57 0.54 0.51 0.51 0.48 0.46 0.45 0.46 0.56 0.49 0.50 0.53 0.44 0.34 0.25 0.25 0.24 0.25 0.28 0.24 0.24 0.25 0.26 0.35 0.40 0.42 0.44 0.53 0.63 0.58 0.58 0.44 0.34 0.33 0.48 0.44 0.37 0.28 0.29 0.26 0.21 0.21 0.17
0.57 0.57 0.58 0.56 0.56 0.54 0.53 0.52 0.50 0.47 0.48 0.42 0.51 0.42 0.62 0.58 0.37 0.32 0.25 0.25 0.27 0.24 0.30 0.29 0.31 0.25 0.30 0.32 0.35 0.39 0.44 0.53 0.68 0.65 0.49 0.52 0.41 0.32 0.34 0.43 0.43 0.38 0.29 0.29 0.20 0.17 0.19
0.57 0.56 0.56 0.54 0.55 0.54 0.54 0.52 0.50 0.49 0.50 0.43 0.39 0.53 0.68 0.61 0.33 0.31 0.31 0.27 0.27 0.30 0.34 0.30 0.28 0.26 0.29 0.34 0.33 0.43 0.47 0.58 0.65 0.61 0.52 0.59 0.40 0.31 0.32 0.38 0.41 0.35 0.32 0.31 0.31 0.26 0.19
0.56 0.56 0.54 0.54 0.54 0.54 0.54 0.53 0.50 0.51 0.49 0.48 0.42 0.39 0.56 0.53 0.49 0.38 0.31 0.28 0.28 0.35 0.32 0.34 0.26 0.27 0.29 0.31 0.40 0.38 0.44 0.53 0.62 0.63 0.66 0.60 0.44 0.38 0.31 0.31 0.35 0.34 0.35 0.33 0.32 0.25 0.19
0.57 0.55 0.53 0.53 0.53 0.54 0.54 0.54 0.52 0.51 0.51 0.51 0.41 0.41 0.60 0.45 0.43 0.42 0.40 0.35 0.33 0.29 0.37 0.32 0.25 0.26 0.28 0.27 0.31 0.36 0.42 0.46 0.53 0.63 0.60 0.53 0.38 0.43 0.43 0.40 0.42 0.44 0.37 0.36 0.29 0.31 0.24
0.60 0.55 0.54 0.52 0.54 0.55 0.52 0.53 0.54 0.56 0.55 0.46 0.37 0.44 0.61 0.55 0.51 0.43 0.42 0.39 0.35 0.32 0.30 0.26 0.26 0.28 0.26 0.26 0.34 0.33 0.39 0.41 0.45 0.57 0.56 0.52 0.42 0.46 0.40 0.43 0.47 0.47 0.42 0.39 0.33 0.32 0.32
0.52 0.50 0.51 0.56 0.63 0.64 0.63 0.62 0.61 0.62 0.63 0.45 0.59 0.69 0.65 0.55 0.49 0.43 0.41 0.43 0.41 0.40 0.37 0.34 0.30 0.26 0.26 0.31 0.40 0.40 0.38 0.41 0.44 0.47 0.51 0.49 0.46 0.43 0.35 0.49 0.53 0.48 0.48 0.41 0.38 0.36 0.33
0.52 0.61 0.69 0.70 0.70 0.72 0.75 0.76 0.71 0.68 0.67 0.67 0.71 0.75 0.59 0.47 0.50 0.46 0.46 0.45 0.47 0.45 0.37 0.37 0.34 0.36 0.38 0.45 0.42 0.37 0.36 0.38 0.41 0.44 0.54 0.50 0.46 0.44 0.42 0.51 0.40 0.52 0.60 0.56 0.42 0.41 0.38
0.67 0.70 0.67 0.67 0.68 0.71 0.73 0.73 0.73 0.72 0.78 0.81 0.86 0.77 0.63 0.49 0.54 0.50 0.49 0.48 0.49 0.48 0.44 0.37 0.40 0.44 0.46 0.37 0.31 0.27 0.31 0.33 0.36 0.41 0.47 0.53 0.46 0.42 0.45 0.46 0.49 0.56 0.64 0.58 0.46 0.54 0.67
0.68 0.66 0.66 0.66 0.67 0.69 0.72 0.73 0.73 0.83 0.93 0.92 0.90 0.93 0.72 0.55 0.51 0.58 0.53 0.52 0.45 0.46 0.43 0.40 0.48 0.45 0.41 0.35 0.31 0.26 0.29 0.36 0.38 0.35 0.47 0.48 0.48 0.44 0.49 0.45 0.42 0.60 0.68 0.69 0.65 0.53 0.78
0.67 0.66 0.64 0.64 0.68 0.71 0.73 0.76 0.85 0.93 0.98 0.96 0.91 0.98 0.78 0.59 0.65 0.64 0.54 0.52 0.58 0.51 0.44 0.43 0.40 0.44 0.53 0.38 0.28 0.31 0.32 0.42 0.35 0.39 0.35 0.38 0.42 0.40 0.46 0.46 0.60 0.73 0.73 0.76 0.50 0.67 0.84
0.66 0.64 0.63 0.65 0.71 0.74 0.80 0.85 0.92 0.97 0.99 0.98 0.94 1.02 0.83 0.67 0.68 0.72 0.70 0.60 0.60 0.56 0.44 0.47 0.38 0.39 0.42 0.35 0.37 0.39 0.38 0.41 0.40 0.46 0.43 0.36 0.39 0.41 0.45 0.44 0.49 0.77 0.74 0.66 0.77 0.82 0.84
0.65 0.64 0.64 0.65 0.72 0.78 0.83 0.91 0.97 0.99 1.01 1.04 0.89 1.04 1.02 0.77 0.71 0.83 0.82 0.82 0.77 0.70 0.59 0.56 0.46 0.42 0.42 0.37 0.36 0.38 0.37 0.43 0.38 0.37 0.50 0.42 0.50 0.48 0.51 0.54 0.67 0.83 0.78 0.73 0.77 0.80 0.79

GFSGBSN_prec_pwat_036.txt.gz
Precipitable_Water
0.45 0.44 0.44 0.43 0.42 0.42 0.42 0.41 0.41 0.39 0.38 0.37 0.35 0.35 0.34 0.34 0.33 0.32 0.35 0.37 0.39 0.41 0.44 0.46 0.53 0.62 0.52 0.34 0.35 0.58 0.62 0.57 0.46 0.37 0.27 0.24 0.38 0.54 0.56 0.73 1.03 1.09 1.10 1.22 1.31 1.26 1.19
0.45 0.45 0.45 0.45 0.43 0.43 0.42 0.42 0.40 0.39 0.38 0.37 0.36 0.35 0.33 0.32 0.32 0.32 0.35 0.39 0.41 0.44 0.47 0.50 0.56 0.60 0.42 0.24 0.44 0.59 0.64 0.61 0.42 0.34 0.28 0.25 0.25 0.57 0.60 0.69 0.90 1.01 1.05 1.11 1.21 1.17 1.15
0.45 0.45 0.45 0.45 0.43 0.42 0.42 0.41 0.40 0.40 0.39 0.38 0.37 0.36 0.34 0.32 0.30 0.32 0.36 0.39 0.40 0.39 0.45 0.49 0.61 0.58 0.36 0.21 0.36 0.59 0.73 0.62 0.48 0.34 0.25 0.27 0.25 0.47 0.66 0.64 0.93 0.97 0.92 0.99 1.04 1.12 1.10
0.45 0.45 0.46 0.45 0.44 0.43 0.43 0.44 0.43 0.42 0.42 0.41 0.40 0.38 0.35 0.32 0.29 0.32 0.36 0.36 0.36 0.42 0.53 0.55 0.70 0.57 0.23 0.31 0.45 0.45 0.61 0.64 0.66 0.47 0.30 0.31 0.25 0.39 0.57 0.71 0.77 0.83 0.86 0.73 0.93 1.10 1.15
0.46 0.47 0.47 0.46 0.46 0.46 0.47 0.47 0.46 0.45 0.44 0.43 0.42 0.41 0.38 0.33 0.30 0.33 0.37 0.37 0.33 0.45 0.58 0.54 0.56 0.49 0.18 0.44 0.36 0.51 0.54 0.56 0.63 0.54 0.38 0.33 0.29 0.26 0.49 0.53 0.57 0.70 0.57 0.63 0.74 1.02 1.05
0.48 0.49 0.49 0.48 0.47 0.46 0.46 0.45 0.44 0.44 0.43 0.42 0.40 0.40 0.39 0.35 0.30 0.34 0.40 0.32 0.27 0.46 0.56 0.53 0.58 0.32 0.30 0.21 0.40 0.45 0.57 0.61 0.60 0.50 0.39 0.32 0.27 0.20 0.31 0.42 0.35 0.49 0.54 0.61 0.63 0.76 0.86
0.48 0.48 0.48 0.48 0.46 0.45 0.44 0.43 0.44 0.44 0.44 0.43 0.42 0.43 0.40 0.36 0.31 0.39 0.39 0.23 0.15 0.15 0.15 0.16 0.18 0.20 0.16 0.30 0.33 0.42 0.52 0.53 0.63 0.49 0.33 0.34 0.22 0.14 0.17 0.33 0.45 0.55 0.58 0.56 0.63 0.74 0.69
0.49 0.48 0.48 0.48 0.46 0.46 0.45 0.45 0.45 0.45 0.45 0.44 0.44 0.44 0.41 0.36 0.31 0.39 0.39 0.20 0.19 0.20 0.12 0.23 0.23 0.23 0.23 0.28 0.23 0.37 0.50 0.39 0.42 0.40 0.42 0.36 0.22 0.20 0.26 0.32 0.36 0.46 0.51 0.52 0.65 0.71 0.64
0.49 0.49 0.49 0.48 0.48 0.48 0.49 0.48 0.46 0.43 0.43 0.43 0.43 0.42 0.43 0.38 0.34 0.33 0.28 0.22 0.26 0.24 0.14 0.19 0.26 0.26 0.24 0.26 0.20 0.31 0.44 0.44 0.30 0.33 0.39 0.35 0.32 0.33 0.29 0.27 0.29 0.36 0.41 0.46 0.49 0.61 0.65
0.49 0.50 0.50 0.50 0.50 0.51 0.48 0.46 0.44 0.41 0.40 0.41 0.40 0.40 0.43 0.41 0.28 0.32 0.23 0.27 0.31 0.28 0.12 0.14 0.20 0.26 0.29 0.27 0.19 0.31 0.39 0.46 0.42 0.29 0.36 0.41 0.45 0.39 0.32 0.26 0.27 0.24 0.38 0.46 0.48 0.49 0.42
0.52 0.53 0.53 0.52 0.54 0.49 0.46 0.44 0.42 0.40 0.39 0.38 0.38 0.39 0.43 0.46 0.32 0.26 0.27 0.36 0.35 0.26 0.06 0.17 0.19 0.29 0.28 0.28 0.28 0.25 0.46 0.39 0.38 0.37 0.31 0.32 0.41 0.45 0.33 0.27 0.36 0.23 0.35 0.43 0.48 0.48 0.48
0.57 0.56 0.56 0.55 0.53 0.49 0.46 0.43 0.41 0.40 0.37 0.35 0.37 0.40 0.52 0.42 0.40 0.33 0.39 0.39 0.30 0.15 0.08 0.16 0.21 0.17 0.14 0.26 0.29 0.32 0.35 0.43 0.41 0.41 0.36 0.32 0.52 0.51 0.47 0.47 0.45 0.44 0.35 0.40 0.46 0.46 0.39
0.59 0.58 0.57 0.56 0.56 0.52 0.50 0.46 0.43 0.41 0.38 0.36 0.39 0.48 0.53 0.48 0.34 0.40 0.46 0.33 0.16 0.12 0.21 0.17 0.15 0.17 0.15 0.16 0.27 0.30 0.32 0.33 0.34 0.30 0.28 0.34 0.35 0.54 0.64 0.52 0.56 0.51 0.41 0.27 0.30 0.33 0.31
0.61 0.60 0.59 0.59 0.58 0.56 0.53 0.51 0.47 0.43 0.38 0.36 0.42 0.56 0.56 0.52 0.52 0.49 0.44 0.26 0.15 0.19 0.18 0.21 0.19 0.18 0.16 0.17 0.19 0.33 0.33 0.32 0.45 0.42 0.32 0.26 0.26 0.39 0.58 0.59 0.49 0.46 0.43 0.30 0.22 0.23 0.27
0.62 0.61 0.61 0.60 0.59 0.57 0.53 0.54 0.51 0.43 0.38 0.37 0.40 0.53 0.50 0.50 0.54 0.53 0.35 0.21 0.20 0.20 0.21 0.20 0.20 0.18 0.17 0.22 0.20 0.34 0.36 0.38 0.47 0.53 0.39 0.29 0.23 0.43 0.52 0.62 0.61 0.44 0.37 0.43 0.31 0.26 0.21
0.63 0.62 0.60 0.59 0.59 0.57 0.53 0.55 0.53 0.44 0.39 0.37 0.33 0.47 0.47 0.57 0.57 0.45 0.29 0.24 0.25 0.24 0.25 0.24 0.19 0.23 0.19 0.23 0.20 0.33 0.37 0.45 0.50 0.59 0.58 0.43 0.28 0.37 0.46 0.63 0.61 0.47 0.43 0.32 0.32 0.18 0.14
0.63 0.62 0.60 0.58 0.58 0.56 0.53 0.55 0.52 0.48 0.40 0.38 0.32 0.33 0.52 0.61 0.54 0.38 0.27 0.27 0.26 0.31 0.29 0.24 0.21 0.23 0.22 0.22 0.25 0.34 0.39 0.46 0.59 0.58 0.59 0.51 0.40 0.30 0.46 0.49 0.45 0.43 0.38 0.34 0.33 0.26 0.16
0.64 0.62 0.59 0.59 0.60 0.57 0.54 0.55 0.53 0.49 0.46 0.36 0.31 0.20 0.53 0.60 0.44 0.40 0.32 0.33 0.34 0.32 0.33 0.29 0.28 0.28 0.26 0.28 0.26 0.31 0.36 0.45 0.55 0.59 0.51 0.57 0.47 0.33 0.36 0.43 0.55 0.54 0.41 0.34 0.23 0.17 0.19
0.68 0.63 0.62 0.62 0.59 0.58 0.56 0.54 0.53 0.49 0.51 0.42 0.28 0.28 0.49 0.57 0.38 0.39 0.42 0.37 0.35 0.31 0.31 0.30 0.27 0.26 0.27 0.28 0.25 0.33 0.41 0.51 0.57 0.56 0.54 0.59 0.47 0.29 0.30 0.41 0.47 0.47 0.47 0.34 0.29 0.26 0.17
0.69 0.66 0.65 0.61 0.58 0.57 0.56 0.55 0.54 0.53 0.53 0.44 0.34 0.24 0.44 0.58 0.57 0.45 0.41 0.36 0.34 0.40 0.37 0.35 0.31 0.30 0.27 0.22 0.30 0.30 0.38 0.47 0.53 0.53 0.62 0.62 0.45 0.36 0.30 0.35 0.43 0.38 0.40 0.43 0.30 0.24 0.21
0.71 0.61 0.57 0.57 0.62 0.69 0.69 0.69 0.69 0.65 0.59 0.48 0.38 0.36 0.51 0.44 0.49 0.47 0.46 0.41 0.38 0.37 0.42 0.37 0.30 0.28 0.26 0.21 0.24 0.27 0.35 0.41 0.48 0.58 0.60 0.55 0.40 0.40 0.40 0.42 0.45 0.42 0.40 0.40 0.32 0.27 0.23
0.61 0.56 0.63 0.73 0.73 0.72 0.72 0.73 0.74 0.73 0.68 0.47 0.40 0.48 0.58 0.55 0.56 0.49 0.44 0.40 0.42 0.43 0.44 0.36 0.35 0.31 0.27 0.23 0.28 0.27 0.36 0.38 0.39 0.50 0.52 0.57 0.43 0.39 0.34 0.44 0.46 0.41 0.40 0.40 0.36 0.30 0.28
0.58 0.67 0.70 0.70 0.70 0.69 0.70 0.71 0.74 0.73 0.70 0.59 0.68 0.73 0.64 0.56 0.53 0.49 0.46 0.45 0.44 0.47 0.49 0.46 0.41 0.34 0.28 0.30 0.35 0.38 0.41 0.41 0.43 0.42 0.47 0.50 0.46 0.37 0.35 0.47 0.45 0.38 0.44 0.44 0.37 0.36 0.32
0.68 0.69 0.71 0.69 0.68 0.68 0.70 0.73 0.73 0.75 0.85 0.82 0.78 0.75 0.59 0.49 0.53 0.50 0.51 0.52 0.48 0.48 0.44 0.46 0.45 0.38 0.42 0.45 0.40 0.36 0.35 0.36 0.38 0.42 0.47 0.49 0.45 0.41 0.41 0.46 0.33 0.49 0.62 0.59 0.51 0.53 0.52
0.72 0.71 0.68 0.66 0.66 0.70 0.73 0.76 0.82 0.89 0.95 0.89 0.90 0.78 0.64 0.51 0.55 0.54 0.53 0.52 0.53 0.52 0.47 0.47 0.44 0.47 0.49 0.38 0.27 0.26 0.34 0.37 0.39 0.46 0.47 0.54 0.48 0.41 0.42 0.44 0.46 0.53 0.60 0.58 0.56 0.57 0.63
0.69 0.68 0.67 0.67 0.69 0.74 0.78 0.83 0.90 0.95 0.97 0.95 0.94 0.95 0.76 0.57 0.53 0.60 0.53 0.55 0.48 0.48 0.47 0.44 0.49 0.49 0.51 0.38 0.28 0.28 0.31 0.40 0.40 0.43 0.49 0.58 0.52 0.44 0.44 0.45 0.38 0.57 0.69 0.77 0.74 0.53 0.78
0.67 0.66 0.68 0.70 0.70 0.73 0.80 0.86 0.94 0.97 1.00 0.98 0.96 1.00 0.79 0.61 0.66 0.65 0.54 0.51 0.58 0.52 0.46 0.48 0.44 0.41 0.50 0.41 0.35 0.34 0.35 0.48 0.38 0.40 0.41 0.46 0.44 0.42 0.44 0.52 0.57 0.73 0.78 0.81 0.58 0.63 0.83
0.65 0.65 0.65 0.65 0.70 0.79 0.86 0.94 0.98 1.00 1.01 1.00 0.95 1.01 0.82 0.66 0.68 0.72 0.70 0.60 0.59 0.57 0.45 0.49 0.41 0.38 0.39 0.33 0.35 0.37 0.38 0.43 0.43 0.48 0.47 0.46 0.47 0.46 0.50 0.52 0.48 0.85 0.83 0.63 0.70 0.81 0.83
0.62 0.62 0.65 0.76 0.86 0.92 0.94 0.98 1.00 0.99 1.01 1.03 0.86 0.98 0.97 0.73 0.70 0.82 0.81 0.83 0.78 0.71 0.59 0.56 0.46 0.42 0.44 0.36 0.39 0.43 0.40 0.45 0.44 0.38 0.54 0.43 0.52 0.50 0.55 0.56 0.78 0.86 0.89 0.84 0.85 0.79 0.83

GFSGBSN_prec_pwat_042.txt.gz
Precipitable_Water
0.48 0.48 0.46 0.46 0.46 0.45 0.44 0.44 0.44 0.44 0.43 0.42 0.42 0.42 0.44 0.43 0.39 0.35 0.36 0.43 0.41 0.41 0.40 0.49 0.45 0.48 0.41 0.21 0.18 0.48 0.71 0.76 0.61 0.59 0.40 0.37 0.40 0.43 0.46 0.66 0.79 0.95 1.22 1.38 1.45 1.43 1.41
0.46 0.46 0.45 0.46 0.46 0.45 0.45 0.46 0.45 0.43 0.42 0.41 0.39 0.40 0.42 0.43 0.41 0.37 0.36 0.41 0.39 0.36 0.42 0.48 0.48 0.50 0.31 0.12 0.30 0.53 0.70 0.73 0.61 0.51 0.41 0.35 0.41 0.42 0.40 0.53 0.65 0.93 0.98 1.22 1.33 1.32 1.33
0.48 0.48 0.48 0.48 0.47 0.48 0.48 0.45 0.43 0.41 0.41 0.40 0.39 0.38 0.39 0.38 0.40 0.35 0.36 0.39 0.37 0.37 0.48 0.49 0.53 0.51 0.30 0.21 0.41 0.50 0.61 0.74 0.70 0.52 0.33 0.38 0.38 0.35 0.33 0.42 0.62 0.87 0.92 1.04 1.11 1.17 1.16
0.47 0.47 0.48 0.49 0.49 0.48 0.45 0.42 0.41 0.40 0.39 0.39 0.39 0.37 0.36 0.36 0.38 0.34 0.34 0.35 0.35 0.41 0.49 0.49 0.61 0.50 0.23 0.44 0.45 0.40 0.41 0.50 0.74 0.60 0.41 0.45 0.45 0.35 0.31 0.48 0.51 0.58 0.74 0.74 0.98 1.06 1.11
0.48 0.48 0.49 0.49 0.49 0.47 0.44 0.43 0.42 0.41 0.40 0.39 0.38 0.37 0.34 0.36 0.38 0.35 0.34 0.34 0.37 0.49 0.48 0.58 0.51 0.42 0.18 0.36 0.24 0.30 0.35 0.37 0.63 0.59 0.49 0.44 0.42 0.29 0.29 0.31 0.41 0.52 0.55 0.66 0.83 1.00 1.02
0.49 0.50 0.50 0.50 0.50 0.48 0.45 0.43 0.41 0.40 0.40 0.38 0.37 0.36 0.35 0.38 0.39 0.36 0.32 0.31 0.43 0.47 0.49 0.53 0.48 0.25 0.24 0.20 0.25 0.30 0.36 0.48 0.50 0.54 0.45 0.41 0.32 0.22 0.21 0.20 0.23 0.40 0.45 0.66 0.73 0.87 0.91
0.52 0.52 0.52 0.52 0.53 0.49 0.46 0.45 0.44 0.41 0.38 0.38 0.38 0.35 0.36 0.41 0.39 0.36 0.31 0.25 0.18 0.16 0.20 0.17 0.19 0.19 0.21 0.25 0.30 0.32 0.38 0.43 0.47 0.49 0.35 0.40 0.29 0.19 0.15 0.18 0.26 0.43 0.48 0.54 0.76 0.88 0.85
0.55 0.56 0.56 0.56 0.56 0.54 0.52 0.50 0.48 0.45 0.45 0.44 0.40 0.37 0.37 0.45 0.40 0.36 0.32 0.21 0.26 0.29 0.15 0.21 0.22 0.21 0.24 0.25 0.23 0.27 0.39 0.40 0.37 0.34 0.42 0.35 0.28 0.32 0.27 0.21 0.20 0.31 0.39 0.46 0.64 0.83 0.81
0.62 0.62 0.61 0.61 0.60 0.58 0.56 0.54 0.52 0.50 0.45 0.42 0.40 0.38 0.39 0.45 0.40 0.32 0.30 0.28 0.38 0.32 0.15 0.16 0.22 0.20 0.20 0.24 0.22 0.24 0.31 0.34 0.34 0.34 0.37 0.31 0.30 0.38 0.33 0.25 0.17 0.18 0.30 0.40 0.49 0.71 0.83
0.66 0.65 0.65 0.66 0.65 0.63 0.60 0.55 0.51 0.47 0.45 0.42 0.40 0.37 0.42 0.46 0.30 0.34 0.28 0.38 0.43 0.34 0.13 0.16 0.20 0.21 0.22 0.22 0.19 0.27 0.27 0.33 0.31 0.31 0.38 0.39 0.40 0.38 0.36 0.29 0.24 0.13 0.19 0.38 0.46 0.55 0.54
0.75 0.72 0.69 0.68 0.67 0.63 0.59 0.54 0.52 0.50 0.48 0.45 0.40 0.37 0.49 0.50 0.36 0.32 0.36 0.46 0.40 0.27 0.08 0.20 0.20 0.27 0.23 0.18 0.19 0.18 0.28 0.25 0.25 0.31 0.34 0.34 0.37 0.38 0.35 0.35 0.32 0.21 0.20 0.21 0.42 0.48 0.55
0.88 0.87 0.82 0.76 0.69 0.63 0.60 0.57 0.55 0.52 0.50 0.47 0.41 0.37 0.51 0.48 0.44 0.43 0.48 0.44 0.30 0.14 0.08 0.17 0.22 0.20 0.19 0.20 0.21 0.22 0.21 0.28 0.32 0.28 0.34 0.35 0.42 0.40 0.41 0.44 0.45 0.40 0.31 0.22 0.28 0.44 0.37
0.95 0.92 0.90 0.83 0.72 0.66 0.63 0.60 0.58 0.55 0.51 0.46 0.40 0.35 0.50 0.51 0.37 0.48 0.47 0.30 0.14 0.09 0.19 0.17 0.18 0.20 0.19 0.17 0.18 0.19 0.19 0.17 0.14 0.11 0.17 0.28 0.34 0.40 0.42 0.38 0.47 0.45 0.30 0.23 0.17 0.23 0.25
0.96 0.93 0.89 0.84 0.73 0.66 0.63 0.62 0.61 0.56 0.51 0.47 0.40 0.34 0.51 0.50 0.52 0.49 0.33 0.20 0.10 0.15 0.17 0.23 0.22 0.21 0.17 0.18 0.18 0.17 0.15 0.16 0.25 0.22 0.16 0.16 0.15 0.33 0.42 0.37 0.39 0.42 0.36 0.21 0.15 0.15 0.18
0.98 0.97 0.90 0.84 0.72 0.66 0.65 0.63 0.60 0.57 0.58 0.50 0.41 0.28 0.41 0.47 0.51 0.45 0.26 0.14 0.15 0.19 0.24 0.23 0.23 0.19 0.18 0.20 0.18 0.18 0.18 0.22 0.28 0.27 0.18 0.17 0.17 0.33 0.44 0.43 0.42 0.43 0.38 0.39 0.25 0.25 0.17
1.01 0.95 0.84 0.80 0.67 0.62 0.61 0.64 0.67 0.66 0.62 0.58 0.35 0.28 0.37 0.47 0.47 0.37 0.26 0.22 0.24 0.31 0.31 0.29 0.22 0.24 0.20 0.21 0.19 0.19 0.18 0.25 0.25 0.29 0.31 0.29 0.18 0.27 0.37 0.49 0.44 0.43 0.55 0.39 0.33 0.18 0.15
1.02 0.90 0.85 0.69 0.59 0.60 0.71 0.72 0.68 0.65 0.65 0.59 0.32 0.19 0.41 0.46 0.38 0.31 0.25 0.29 0.32 0.38 0.37 0.30 0.27 0.25 0.25 0.22 0.23 0.21 0.20 0.25 0.28 0.28 0.30 0.27 0.27 0.21 0.34 0.39 0.35 0.37 0.45 0.48 0.38 0.31 0.19
1.03 0.92 0.77 0.55 0.60 0.69 0.68 0.68 0.68 0.65 0.62 0.51 0.30 0.13 0.39 0.54 0.36 0.40 0.34 0.39 0.42 0.38 0.41 0.37 0.36 0.33 0.28 0.27 0.23 0.22 0.21 0.24 0.33 0.31 0.24 0.31 0.30 0.24 0.24 0.40 0.50 0.45 0.43 0.53 0.41 0.28 0.31
1.06 0.84 0.62 0.61 0.66 0.69 0.69 0.68 0.67 0.67 0.67 0.51 0.33 0.35 0.56 0.58 0.37 0.41 0.46 0.45 0.46 0.43 0.43 0.40 0.37 0.37 0.32 0.27 0.22 0.25 0.25 0.31 0.32 0.29 0.27 0.33 0.27 0.24 0.20 0.31 0.45 0.41 0.43 0.49 0.53 0.52 0.33
0.88 0.70 0.62 0.66 0.68 0.69 0.68 0.69 0.72 0.74 0.77 0.67 0.51 0.38 0.50 0.56 0.58 0.49 0.45 0.44 0.43 0.51 0.49 0.48 0.43 0.40 0.34 0.30 0.31 0.24 0.24 0.31 0.34 0.32 0.38 0.43 0.33 0.29 0.22 0.27 0.42 0.37 0.42 0.45 0.49 0.44 0.40
0.71 0.64 0.67 0.69 0.70 0.70 0.72 0.76 0.78 0.81 0.85 0.75 0.59 0.49 0.58 0.46 0.49 0.51 0.50 0.46 0.42 0.42 0.51 0.52 0.42 0.41 0.38 0.31 0.30 0.27 0.29 0.29 0.35 0.39 0.41 0.37 0.27 0.36 0.35 0.39 0.45 0.41 0.41 0.45 0.43 0.46 0.41
0.65 0.69 0.70 0.70 0.72 0.74 0.74 0.77 0.81 0.84 0.88 0.71 0.57 0.56 0.62 0.57 0.55 0.50 0.49 0.44 0.42 0.45 0.47 0.43 0.42 0.43 0.45 0.37 0.37 0.31 0.32 0.28 0.26 0.36 0.39 0.41 0.27 0.38 0.32 0.39 0.44 0.39 0.41 0.45 0.47 0.47 0.46
0.69 0.70 0.69 0.70 0.70 0.72 0.75 0.79 0.85 0.88 0.90 0.72 0.73 0.75 0.62 0.54 0.50 0.46 0.45 0.46 0.45 0.49 0.49 0.52 0.49 0.45 0.42 0.43 0.45 0.42 0.42 0.39 0.36 0.32 0.34 0.34 0.35 0.35 0.27 0.39 0.43 0.37 0.41 0.50 0.53 0.57 0.53
0.69 0.67 0.66 0.66 0.69 0.76 0.82 0.87 0.89 0.93 0.94 0.84 0.79 0.73 0.56 0.44 0.47 0.47 0.50 0.50 0.48 0.49 0.45 0.50 0.52 0.46 0.51 0.57 0.49 0.44 0.42 0.39 0.38 0.35 0.40 0.37 0.38 0.38 0.34 0.41 0.32 0.50 0.62 0.61 0.56 0.60 0.65
0.65 0.63 0.63 0.70 0.82 0.86 0.88 0.91 0.93 0.94 0.97 0.88 0.86 0.72 0.58 0.44 0.49 0.49 0.50 0.49 0.52 0.53 0.49 0.49 0.50 0.55 0.57 0.48 0.37 0.32 0.27 0.28 0.26 0.30 0.39 0.46 0.41 0.36 0.34 0.37 0.49 0.55 0.62 0.60 0.58 0.58 0.68
0.61 0.62 0.69 0.77 0.87 0.90 0.94 0.95 0.95 0.95 0.95 0.90 0.85 0.85 0.67 0.50 0.47 0.55 0.49 0.52 0.46 0.44 0.44 0.43 0.48 0.55 0.52 0.43 0.37 0.27 0.23 0.26 0.26 0.33 0.45 0.47 0.49 0.40 0.40 0.38 0.38 0.56 0.67 0.75 0.71 0.54 0.74
0.62 0.67 0.71 0.76 0.84 0.91 0.95 0.96 0.95 0.94 0.95 0.89 0.82 0.87 0.69 0.52 0.59 0.59 0.50 0.50 0.55 0.49 0.43 0.43 0.41 0.42 0.53 0.41 0.33 0.30 0.30 0.40 0.32 0.33 0.35 0.37 0.41 0.38 0.40 0.42 0.54 0.69 0.74 0.75 0.48 0.56 0.78
0.66 0.67 0.69 0.73 0.85 0.91 0.95 0.95 0.95 0.95 0.94 0.88 0.78 0.90 0.73 0.58 0.60 0.65 0.65 0.58 0.57 0.55 0.44 0.48 0.40 0.47 0.46 0.38 0.36 0.36 0.35 0.39 0.39 0.43 0.41 0.39 0.38 0.40 0.46 0.45 0.43 0.78 0.72 0.58 0.68 0.78 0.80
0.68 0.68 0.68 0.74 0.86 0.91 0.94 0.96 0.94 0.92 0.92 0.91 0.74 0.89 0.89 0.68 0.62 0.74 0.75 0.78 0.75 0.69 0.58 0.51 0.45 0.50 0.53 0.44 0.44 0.43 0.39 0.42 0.41 0.34 0.52 0.39 0.47 0.43 0.49 0.51 0.71 0.82 0.77 0.79 0.81 0.78 0.82

GFSGBSN_prec_pwat_045.txt.gz
Precipitable_Water
0.48 0.48 0.48 0.48 0.48 0.48 0.46 0.44 0.42 0.41 0.41 0.39 0.38 0.38 0.38 0.38 0.39 0.39 0.39 0.41 0.41 0.38 0.38 0.47 0.48 0.50 0.40 0.18 0.16 0.47 0.81 0.78 0.74 0.64 0.54 0.41 0.43 0.43 0.37 0.58 0.71 0.85 1.25 1.32 1.41 1.38 1.41
0.47 0.47 0.48 0.48 0.48 0.45 0.43 0.42 0.41 0.41 0.41 0.39 0.37 0.37 0.37 0.37 0.37 0.37 0.37 0.38 0.36 0.36 0.44 0.49 0.46 0.53 0.31 0.11 0.33 0.48 0.62 0.69 0.74 0.66 0.49 0.46 0.38 0.45 0.41 0.53 0.60 0.79 1.02 1.27 1.36 1.35 1.37
0.46 0.46 0.47 0.48 0.47 0.44 0.43 0.42 0.42 0.41 0.40 0.38 0.37 0.35 0.36 0.38 0.38 0.36 0.36 0.36 0.34 0.39 0.47 0.43 0.54 0.51 0.29 0.23 0.39 0.44 0.52 0.61 0.73 0.69 0.48 0.55 0.51 0.38 0.37 0.36 0.58 0.70 0.77 0.92 1.12 1.18 1.21
0.48 0.49 0.49 0.49 0.48 0.45 0.44 0.43 0.42 0.41 0.41 0.40 0.38 0.36 0.37 0.39 0.40 0.37 0.36 0.34 0.35 0.45 0.44 0.53 0.59 0.51 0.24 0.34 0.37 0.34 0.45 0.50 0.68 0.75 0.54 0.55 0.53 0.49 0.33 0.39 0.41 0.44 0.59 0.62 1.00 1.12 1.15
0.52 0.51 0.51 0.52 0.52 0.49 0.48 0.47 0.46 0.44 0.42 0.41 0.39 0.37 0.36 0.40 0.41 0.37 0.34 0.33 0.43 0.48 0.53 0.58 0.44 0.35 0.17 0.30 0.25 0.30 0.34 0.42 0.63 0.70 0.51 0.49 0.48 0.36 0.33 0.26 0.30 0.44 0.39 0.53 0.79 1.08 1.06
0.57 0.57 0.57 0.57 0.57 0.55 0.53 0.51 0.49 0.46 0.45 0.45 0.42 0.38 0.37 0.44 0.42 0.38 0.36 0.40 0.48 0.49 0.50 0.54 0.44 0.21 0.21 0.21 0.26 0.30 0.37 0.50 0.52 0.50 0.43 0.37 0.40 0.30 0.25 0.20 0.13 0.32 0.44 0.52 0.64 0.92 0.99
0.62 0.63 0.62 0.62 0.62 0.61 0.59 0.56 0.52 0.49 0.47 0.46 0.45 0.43 0.41 0.48 0.43 0.39 0.35 0.29 0.21 0.20 0.23 0.18 0.19 0.19 0.20 0.24 0.28 0.27 0.42 0.45 0.44 0.39 0.27 0.34 0.26 0.24 0.24 0.23 0.20 0.35 0.47 0.47 0.71 0.90 0.91
0.64 0.64 0.64 0.64 0.64 0.63 0.62 0.59 0.56 0.53 0.51 0.50 0.49 0.47 0.43 0.47 0.42 0.38 0.34 0.25 0.28 0.29 0.17 0.22 0.22 0.22 0.23 0.26 0.20 0.22 0.40 0.37 0.35 0.27 0.32 0.27 0.22 0.29 0.33 0.26 0.21 0.18 0.37 0.46 0.66 0.80 0.85
0.81 0.81 0.80 0.76 0.71 0.68 0.66 0.62 0.60 0.58 0.54 0.53 0.50 0.45 0.44 0.48 0.42 0.36 0.31 0.31 0.42 0.35 0.18 0.19 0.23 0.21 0.21 0.25 0.21 0.20 0.29 0.33 0.34 0.31 0.30 0.26 0.28 0.32 0.32 0.30 0.22 0.17 0.19 0.39 0.51 0.66 0.80
0.94 0.93 0.90 0.88 0.87 0.79 0.71 0.65 0.63 0.59 0.56 0.52 0.49 0.45 0.47 0.49 0.33 0.37 0.32 0.42 0.46 0.38 0.14 0.17 0.21 0.22 0.23 0.24 0.19 0.25 0.27 0.29 0.28 0.29 0.36 0.33 0.39 0.34 0.32 0.31 0.30 0.19 0.18 0.23 0.45 0.52 0.52
1.02 0.95 0.91 0.86 0.84 0.82 0.74 0.66 0.61 0.57 0.55 0.52 0.50 0.45 0.51 0.51 0.38 0.33 0.40 0.49 0.39 0.27 0.08 0.20 0.21 0.27 0.24 0.19 0.20 0.20 0.28 0.23 0.18 0.27 0.31 0.32 0.31 0.35 0.34 0.32 0.39 0.29 0.26 0.18 0.21 0.44 0.49
1.06 0.99 0.94 0.91 0.86 0.79 0.71 0.63 0.59 0.57 0.57 0.58 0.54 0.45 0.52 0.47 0.44 0.44 0.50 0.42 0.30 0.15 0.09 0.16 0.20 0.19 0.19 0.22 0.22 0.22 0.22 0.28 0.27 0.21 0.28 0.30 0.40 0.38 0.40 0.41 0.40 0.44 0.33 0.27 0.21 0.19 0.28
1.05 1.00 0.94 0.92 0.78 0.76 0.67 0.60 0.60 0.67 0.71 0.65 0.59 0.45 0.46 0.52 0.35 0.48 0.47 0.29 0.14 0.10 0.17 0.15 0.16 0.19 0.20 0.19 0.20 0.19 0.20 0.18 0.14 0.08 0.13 0.19 0.22 0.34 0.42 0.36 0.41 0.41 0.39 0.25 0.18 0.15 0.11
1.05 0.96 0.94 0.80 0.80 0.70 0.59 0.65 0.74 0.69 0.63 0.59 0.56 0.42 0.43 0.46 0.49 0.49 0.34 0.20 0.10 0.13 0.15 0.19 0.19 0.20 0.17 0.19 0.19 0.18 0.18 0.16 0.23 0.20 0.14 0.09 0.07 0.22 0.35 0.37 0.35 0.37 0.38 0.29 0.18 0.14 0.12
1.06 1.02 0.92 0.85 0.69 0.57 0.66 0.69 0.64 0.60 0.59 0.58 0.53 0.36 0.41 0.42 0.46 0.45 0.26 0.13 0.13 0.16 0.21 0.21 0.21 0.19 0.20 0.23 0.20 0.19 0.19 0.20 0.22 0.22 0.12 0.12 0.10 0.22 0.30 0.38 0.43 0.35 0.34 0.41 0.32 0.29 0.19
1.09 1.03 0.95 0.79 0.56 0.64 0.69 0.65 0.64 0.60 0.59 0.55 0.36 0.30 0.35 0.44 0.44 0.36 0.24 0.18 0.22 0.28 0.29 0.29 0.23 0.25 0.21 0.22 0.22 0.21 0.19 0.26 0.24 0.27 0.27 0.20 0.07 0.16 0.21 0.29 0.38 0.38 0.40 0.38 0.39 0.23 0.17
1.11 1.04 0.84 0.60 0.62 0.67 0.67 0.65 0.61 0.62 0.60 0.54 0.34 0.21 0.37 0.46 0.44 0.35 0.26 0.29 0.31 0.38 0.38 0.31 0.28 0.27 0.27 0.25 0.26 0.25 0.21 0.28 0.32 0.29 0.30 0.24 0.17 0.11 0.15 0.16 0.22 0.33 0.38 0.42 0.43 0.36 0.22
1.07 0.86 0.64 0.60 0.64 0.67 0.68 0.66 0.69 0.71 0.72 0.65 0.48 0.25 0.50 0.60 0.41 0.43 0.37 0.41 0.44 0.40 0.43 0.38 0.37 0.33 0.31 0.31 0.30 0.28 0.24 0.25 0.36 0.33 0.24 0.28 0.22 0.12 0.11 0.14 0.22 0.32 0.38 0.39 0.36 0.35 0.36
0.85 0.64 0.60 0.65 0.67 0.69 0.71 0.71 0.72 0.74 0.77 0.69 0.51 0.48 0.62 0.61 0.40 0.42 0.47 0.45 0.47 0.44 0.44 0.42 0.38 0.39 0.38 0.33 0.28 0.30 0.31 0.37 0.38 0.31 0.28 0.31 0.22 0.11 0.09 0.12 0.14 0.23 0.31 0.43 0.40 0.42 0.39
0.64 0.63 0.66 0.67 0.69 0.70 0.72 0.73 0.75 0.78 0.80 0.73 0.56 0.42 0.54 0.58 0.57 0.47 0.42 0.41 0.40 0.49 0.48 0.50 0.45 0.44 0.39 0.34 0.37 0.32 0.33 0.39 0.40 0.36 0.38 0.34 0.22 0.15 0.10 0.12 0.28 0.25 0.32 0.39 0.41 0.35 0.39
0.65 0.66 0.65 0.66 0.68 0.71 0.74 0.77 0.80 0.83 0.85 0.76 0.58 0.50 0.56 0.44 0.45 0.47 0.45 0.42 0.39 0.39 0.49 0.50 0.45 0.44 0.42 0.35 0.34 0.33 0.35 0.36 0.42 0.42 0.41 0.34 0.18 0.21 0.22 0.23 0.25 0.27 0.29 0.36 0.38 0.38 0.37
0.65 0.65 0.64 0.65 0.72 0.79 0.82 0.84 0.86 0.87 0.87 0.70 0.56 0.53 0.56 0.49 0.49 0.44 0.43 0.41 0.40 0.43 0.44 0.42 0.42 0.45 0.46 0.38 0.37 0.33 0.36 0.35 0.31 0.38 0.36 0.34 0.20 0.26 0.20 0.20 0.24 0.28 0.31 0.36 0.39 0.38 0.39
0.64 0.62 0.63 0.70 0.81 0.85 0.88 0.88 0.88 0.90 0.88 0.69 0.69 0.68 0.56 0.48 0.44 0.41 0.41 0.43 0.44 0.48 0.48 0.50 0.48 0.43 0.41 0.44 0.50 0.50 0.47 0.45 0.38 0.33 0.31 0.29 0.26 0.24 0.15 0.25 0.31 0.26 0.29 0.34 0.40 0.43 0.40
0.61 0.62 0.66 0.73 0.82 0.88 0.91 0.90 0.91 0.91 0.90 0.79 0.73 0.66 0.51 0.38 0.42 0.41 0.45 0.47 0.46 0.48 0.41 0.45 0.49 0.43 0.49 0.58 0.55 0.50 0.45 0.42 0.40 0.38 0.41 0.31 0.29 0.28 0.20 0.28 0.21 0.30 0.49 0.43 0.53 0.54 0.52
0.61 0.64 0.68 0.73 0.82 0.88 0.91 0.92 0.93 0.91 0.92 0.82 0.79 0.66 0.53 0.41 0.46 0.45 0.46 0.46 0.47 0.45 0.40 0.39 0.44 0.53 0.58 0.51 0.40 0.33 0.33 0.35 0.33 0.37 0.37 0.38 0.34 0.27 0.25 0.27 0.37 0.45 0.56 0.50 0.52 0.49 0.57
0.64 0.66 0.68 0.71 0.83 0.88 0.90 0.93 0.95 0.93 0.90 0.85 0.79 0.81 0.64 0.47 0.44 0.52 0.47 0.47 0.40 0.39 0.41 0.43 0.52 0.60 0.57 0.47 0.38 0.27 0.24 0.29 0.26 0.25 0.35 0.38 0.40 0.32 0.30 0.26 0.30 0.49 0.65 0.71 0.67 0.45 0.64
0.68 0.68 0.68 0.73 0.85 0.88 0.89 0.93 0.94 0.92 0.89 0.84 0.78 0.86 0.68 0.49 0.55 0.55 0.46 0.44 0.49 0.45 0.39 0.47 0.51 0.52 0.57 0.43 0.34 0.30 0.29 0.38 0.29 0.29 0.29 0.32 0.34 0.30 0.30 0.29 0.40 0.61 0.73 0.75 0.47 0.50 0.72
0.68 0.70 0.70 0.81 0.87 0.89 0.88 0.93 0.92 0.93 0.93 0.86 0.79 0.88 0.71 0.57 0.58 0.61 0.59 0.50 0.51 0.49 0.40 0.48 0.48 0.52 0.49 0.39 0.36 0.35 0.34 0.38 0.38 0.40 0.37 0.34 0.32 0.33 0.36 0.33 0.32 0.70 0.74 0.58 0.65 0.78 0.81
0.69 0.71 0.76 0.83 0.87 0.90 0.91 0.94 0.94 0.93 0.95 0.93 0.75 0.89 0.87 0.67 0.62 0.72 0.71 0.74 0.71 0.66 0.55 0.56 0.52 0.54 0.54 0.45 0.45 0.44 0.38 0.42 0.40 0.32 0.49 0.37 0.44 0.41 0.44 0.45 0.63 0.73 0.74 0.80 0.84 0.84 0.85

GFSGBSN_prec_pwat_048.txt.gz
Precipitable_Water
0.48 0.48 0.48 0.48 0.45 0.43 0.42 0.42 0.42 0.41 0.40 0.37 0.36 0.36 0.36 0.36 0.39 0.40 0.39 0.39 0.38 0.38 0.39 0.47 0.45 0.49 0.41 0.21 0.19 0.47 0.75 0.84 0.74 0.73 0.70 0.55 0.52 0.53 0.47 0.63 0.74 0.79 1.11 1.34 1.34 1.40 1.35
0.49 0.48 0.48 0.48 0.46 0.45 0.44 0.44 0.44 0.43 0.41 0.38 0.36 0.36 0.36 0.36 0.41 0.40 0.38 0.37 0.36 0.36 0.43 0.45 0.47 0.50 0.33 0.15 0.36 0.44 0.68 0.71 0.71 0.79 0.71 0.57 0.52 0.51 0.46 0.50 0.58 0.68 0.92 1.28 1.29 1.37 1.40
0.49 0.49 0.49 0.49 0.49 0.48 0.47 0.47 0.46 0.44 0.43 0.40 0.38 0.37 0.36 0.37 0.42 0.40 0.38 0.36 0.35 0.41 0.43 0.47 0.54 0.50 0.25 0.20 0.33 0.40 0.50 0.60 0.74 0.73 0.64 0.56 0.52 0.45 0.38 0.41 0.61 0.67 0.74 0.96 1.14 1.27 1.27
0.54 0.54 0.54 0.54 0.53 0.52 0.50 0.50 0.47 0.45 0.44 0.43 0.40 0.39 0.38 0.40 0.44 0.40 0.37 0.35 0.40 0.43 0.46 0.52 0.58 0.50 0.22 0.31 0.35 0.29 0.44 0.59 0.71 0.82 0.70 0.68 0.57 0.46 0.35 0.39 0.35 0.45 0.50 0.59 0.90 1.12 1.20
0.60 0.60 0.59 0.59 0.58 0.58 0.57 0.56 0.53 0.50 0.49 0.47 0.44 0.41 0.40 0.43 0.45 0.41 0.38 0.41 0.46 0.46 0.51 0.55 0.47 0.37 0.18 0.31 0.25 0.29 0.33 0.49 0.59 0.66 0.61 0.65 0.55 0.46 0.43 0.24 0.20 0.33 0.33 0.47 0.67 1.07 1.12
0.65 0.64 0.63 0.63 0.63 0.62 0.62 0.61 0.59 0.56 0.54 0.52 0.49 0.45 0.43 0.47 0.45 0.43 0.42 0.46 0.46 0.54 0.49 0.50 0.39 0.24 0.21 0.21 0.25 0.32 0.44 0.52 0.53 0.60 0.42 0.38 0.39 0.34 0.33 0.23 0.14 0.18 0.31 0.43 0.50 0.91 1.05
0.83 0.82 0.82 0.81 0.79 0.75 0.68 0.64 0.62 0.59 0.57 0.55 0.52 0.49 0.47 0.53 0.47 0.44 0.42 0.38 0.34 0.26 0.24 0.19 0.19 0.18 0.19 0.26 0.28 0.32 0.46 0.47 0.45 0.52 0.33 0.32 0.27 0.22 0.27 0.29 0.23 0.25 0.32 0.38 0.60 0.84 0.99
0.95 0.91 0.89 0.87 0.85 0.84 0.80 0.74 0.66 0.63 0.59 0.58 0.56 0.55 0.51 0.57 0.49 0.45 0.44 0.31 0.31 0.31 0.21 0.23 0.23 0.22 0.24 0.26 0.21 0.26 0.45 0.43 0.30 0.26 0.35 0.30 0.22 0.28 0.32 0.31 0.29 0.20 0.30 0.40 0.55 0.75 0.86
1.07 1.00 0.95 0.92 0.90 0.86 0.80 0.75 0.70 0.66 0.61 0.60 0.61 0.59 0.53 0.57 0.48 0.44 0.36 0.35 0.45 0.39 0.22 0.21 0.24 0.22 0.22 0.25 0.21 0.21 0.33 0.35 0.38 0.26 0.24 0.23 0.27 0.30 0.27 0.28 0.28 0.24 0.17 0.28 0.49 0.65 0.75
1.05 1.00 0.98 0.94 0.90 0.87 0.80 0.73 0.67 0.65 0.65 0.66 0.67 0.63 0.52 0.53 0.41 0.38 0.34 0.43 0.46 0.42 0.19 0.22 0.22 0.23 0.23 0.25 0.20 0.25 0.28 0.31 0.30 0.34 0.33 0.24 0.29 0.29 0.27 0.27 0.27 0.23 0.22 0.21 0.32 0.47 0.50
1.10 1.02 0.97 0.90 0.87 0.77 0.71 0.64 0.60 0.67 0.71 0.72 0.70 0.66 0.51 0.55 0.41 0.34 0.39 0.48 0.42 0.31 0.11 0.24 0.22 0.27 0.25 0.21 0.22 0.22 0.29 0.26 0.24 0.28 0.35 0.31 0.29 0.32 0.28 0.30 0.31 0.27 0.31 0.22 0.21 0.30 0.47
1.07 1.05 0.97 0.94 0.82 0.74 0.63 0.62 0.71 0.73 0.71 0.67 0.62 0.58 0.44 0.48 0.44 0.42 0.47 0.43 0.31 0.17 0.11 0.18 0.21 0.19 0.20 0.22 0.22 0.22 0.23 0.26 0.26 0.21 0.28 0.31 0.42 0.36 0.35 0.38 0.37 0.37 0.35 0.30 0.23 0.19 0.22
1.10 1.04 1.01 0.92 0.84 0.66 0.59 0.70 0.66 0.61 0.58 0.56 0.54 0.48 0.40 0.45 0.36 0.47 0.47 0.31 0.16 0.11 0.19 0.16 0.17 0.19 0.19 0.19 0.20 0.20 0.22 0.20 0.17 0.12 0.14 0.20 0.23 0.34 0.39 0.36 0.41 0.35 0.31 0.26 0.22 0.15 0.10
1.12 1.07 0.99 0.90 0.77 0.58 0.68 0.65 0.61 0.59 0.57 0.55 0.50 0.43 0.45 0.45 0.45 0.46 0.39 0.23 0.13 0.16 0.15 0.19 0.17 0.18 0.17 0.20 0.20 0.19 0.20 0.18 0.20 0.18 0.16 0.13 0.11 0.22 0.34 0.32 0.36 0.33 0.30 0.27 0.21 0.17 0.13
1.11 1.06 0.92 0.73 0.56 0.62 0.64 0.62 0.59 0.58 0.58 0.54 0.46 0.38 0.38 0.39 0.43 0.44 0.29 0.16 0.15 0.18 0.18 0.18 0.19 0.18 0.19 0.22 0.21 0.21 0.21 0.21 0.23 0.21 0.14 0.15 0.13 0.28 0.28 0.32 0.37 0.34 0.30 0.32 0.32 0.33 0.22
1.04 0.92 0.70 0.56 0.58 0.62 0.64 0.64 0.66 0.66 0.66 0.67 0.47 0.38 0.33 0.43 0.41 0.35 0.25 0.18 0.21 0.24 0.25 0.25 0.20 0.22 0.20 0.22 0.24 0.24 0.22 0.30 0.24 0.24 0.22 0.22 0.10 0.16 0.21 0.24 0.27 0.32 0.38 0.32 0.32 0.25 0.22
0.91 0.68 0.57 0.60 0.62 0.64 0.65 0.66 0.66 0.67 0.67 0.70 0.56 0.44 0.47 0.57 0.54 0.43 0.30 0.33 0.35 0.37 0.38 0.32 0.30 0.28 0.27 0.26 0.27 0.26 0.25 0.30 0.32 0.29 0.26 0.23 0.16 0.14 0.13 0.10 0.14 0.22 0.26 0.40 0.38 0.33 0.25
0.64 0.60 0.60 0.63 0.65 0.66 0.68 0.68 0.68 0.72 0.71 0.68 0.56 0.33 0.61 0.67 0.45 0.45 0.39 0.44 0.45 0.41 0.42 0.39 0.38 0.35 0.32 0.32 0.30 0.31 0.29 0.29 0.38 0.34 0.25 0.30 0.24 0.16 0.14 0.13 0.15 0.23 0.32 0.33 0.31 0.30 0.32
0.62 0.61 0.63 0.64 0.66 0.71 0.73 0.74 0.74 0.77 0.78 0.69 0.53 0.49 0.66 0.63 0.40 0.41 0.45 0.42 0.44 0.41 0.41 0.41 0.38 0.39 0.40 0.35 0.31 0.33 0.33 0.36 0.41 0.34 0.30 0.34 0.24 0.16 0.11 0.12 0.13 0.12 0.19 0.28 0.37 0.40 0.34
0.61 0.64 0.65 0.66 0.73 0.78 0.80 0.80 0.80 0.81 0.81 0.74 0.55 0.42 0.52 0.56 0.52 0.42 0.37 0.37 0.36 0.44 0.43 0.46 0.44 0.45 0.40 0.36 0.36 0.33 0.34 0.41 0.45 0.40 0.41 0.34 0.24 0.21 0.14 0.14 0.22 0.22 0.20 0.24 0.32 0.30 0.32
0.62 0.62 0.64 0.68 0.75 0.81 0.84 0.84 0.83 0.82 0.82 0.74 0.57 0.47 0.50 0.37 0.39 0.40 0.40 0.38 0.35 0.35 0.43 0.44 0.41 0.43 0.42 0.36 0.36 0.33 0.37 0.39 0.44 0.45 0.45 0.39 0.28 0.26 0.23 0.22 0.19 0.17 0.17 0.20 0.27 0.31 0.29
0.62 0.63 0.65 0.69 0.77 0.83 0.85 0.86 0.86 0.84 0.83 0.66 0.51 0.48 0.50 0.43 0.44 0.39 0.39 0.36 0.34 0.37 0.38 0.36 0.36 0.40 0.43 0.38 0.39 0.36 0.40 0.39 0.36 0.43 0.40 0.43 0.30 0.29 0.24 0.24 0.22 0.17 0.15 0.14 0.20 0.26 0.29
0.62 0.64 0.66 0.69 0.79 0.84 0.84 0.85 0.87 0.85 0.84 0.63 0.63 0.64 0.53 0.42 0.40 0.37 0.36 0.37 0.36 0.40 0.41 0.43 0.41 0.41 0.39 0.42 0.48 0.52 0.51 0.51 0.49 0.41 0.38 0.38 0.33 0.28 0.20 0.21 0.18 0.15 0.16 0.16 0.14 0.23 0.27
0.64 0.66 0.67 0.69 0.81 0.84 0.85 0.88 0.89 0.87 0.86 0.76 0.69 0.63 0.47 0.35 0.38 0.38 0.40 0.40 0.37 0.40 0.37 0.43 0.46 0.43 0.49 0.55 0.55 0.50 0.46 0.45 0.46 0.43 0.40 0.34 0.34 0.31 0.21 0.19 0.16 0.18 0.21 0.21 0.18 0.18 0.26
0.67 0.68 0.68 0.73 0.83 0.85 0.86 0.88 0.90 0.88 0.88 0.79 0.78 0.64 0.51 0.35 0.41 0.40 0.40 0.40 0.43 0.45 0.44 0.45 0.48 0.53 0.58 0.52 0.42 0.36 0.34 0.36 0.36 0.39 0.39 0.41 0.35 0.26 0.22 0.18 0.19 0.20 0.24 0.28 0.19 0.18 0.30
0.68 0.69 0.70 0.80 0.85 0.84 0.87 0.89 0.90 0.89 0.88 0.85 0.80 0.79 0.61 0.44 0.37 0.46 0.41 0.42 0.37 0.40 0.42 0.49 0.58 0.63 0.61 0.49 0.41 0.29 0.27 0.32 0.29 0.33 0.34 0.40 0.40 0.30 0.23 0.17 0.15 0.25 0.42 0.57 0.54 0.27 0.54
0.68 0.70 0.76 0.82 0.85 0.83 0.87 0.90 0.92 0.91 0.90 0.88 0.82 0.86 0.67 0.49 0.54 0.54 0.44 0.43 0.49 0.46 0.44 0.51 0.54 0.55 0.61 0.45 0.36 0.34 0.31 0.40 0.29 0.30 0.27 0.28 0.32 0.27 0.23 0.23 0.27 0.39 0.53 0.62 0.39 0.39 0.61
0.69 0.70 0.75 0.80 0.85 0.84 0.85 0.89 0.94 0.97 0.94 0.91 0.84 0.91 0.72 0.56 0.56 0.59 0.59 0.52 0.56 0.55 0.44 0.52 0.52 0.55 0.51 0.41 0.38 0.38 0.35 0.38 0.37 0.40 0.36 0.31 0.28 0.27 0.31 0.27 0.25 0.54 0.58 0.48 0.67 0.70 0.76
0.68 0.71 0.73 0.78 0.84 0.87 0.86 0.90 0.90 0.93 0.97 0.94 0.78 0.89 0.88 0.64 0.58 0.71 0.70 0.70 0.65 0.65 0.59 0.59 0.53 0.55 0.56 0.46 0.46 0.44 0.39 0.41 0.39 0.32 0.47 0.33 0.39 0.36 0.38 0.39 0.55 0.62 0.61 0.76 0.83 0.80 0.82